[{"header": {"dx": 0.06612293990616946, "dy": 0.0552356325346848, "nx": 98, "ny": 59, "la1": 35.046912555036876, "la2": 31.78801023549047, "lo1": -121.43107172385933, "lo2": -114.95102361305473, "refTime": "2026041310", "parameterCategory": 1, "parameterNumber": 2}, "data": [14.08, 14.08, 13.81, 13.81, 13.81, 13.81, 13.7, 13.37, 13.56, 13.39, 12.39, 9.97, 8.85, 3.53, 0.0, 0.0, 0.0, 0.0, 11.18, 11.18, 11.62, 12.07, 11.18, 10.96, 11.46, 12.07, 11.45, 10.01, 10.04, 10.8, 11.62, -12.07, -12.07, -12.07, -10.73, -8.4, -7.27, 8.94, 7.6, 5.69, 6.01, 0.0, 0.0, 0.0, 10.12, 13.02, 14.51, 18.21, 18.33, 15.27, 12.52, 11.06, 11.06, 12.02, 11.06, 12.37, 12.73, 12.73, 12.81, 12.27, 12.79, 12.27, 11.88, 10.37, 10.37, 10.47, 12.65, 13.65, 14.39, 14.86, 14.6, 14.44, 14.94, 16.12, 17.02, 16.9, 16.54, 14.94, 8.93, 0.0, -7.19, -2.71, -2.1, -2.37, -2.2, 0.0, 0.0, 3.25, 6.2, 9.8, 10.52, 10.94, 10.94, 12.42, 14.3, 10.43, 8.58, 9.48, 13.39, 13.81, 13.91, 13.91, 13.91, 13.81, 14.23, 13.77, 13.19, 13.19, 12.18, 11.85, 10.4, 8.58, 6.45, 3.53, 4.6, 11.62, 11.18, 10.28, 12.07, 12.07, 12.07, 12.52, 11.02, 11.18, 10.38, 8.22, 9.67, 11.45, 12.96, 12.96, 12.96, -12.07, -9.83, -8.49, -8.05, 8.05, 6.01, 6.32, 6.95, 8.22, 9.17, 11.9, 15.69, 17.88, 19.67, 18.78, 14.13, 9.12, 9.49, 9.49, 10.75, 11.2, 11.2, 12.37, 12.37, 12.89, 12.81, 13.56, 12.79, 12.87, 11.6, 11.6, 10.37, 12.65, 13.02, 13.58, 14.3, 15.27, 15.81, 15.27, 15.41, 15.99, 16.88, 16.46, 15.99, 14.94, 8.93, 0.0, -7.19, -2.71, -2.1, -2.37, -2.2, 0.0, 0.0, 3.25, 6.2, 9.8, 10.52, 10.94, 10.94, 12.42, 14.3, 10.43, 8.58, 9.48, 13.39, 13.91, 13.91, 13.91, 13.91, 13.91, 13.92, 13.92, 13.77, 12.79, 11.2, 9.05, 10.4, 10.4, 9.2, 9.6, 10.6, 11.18, 11.18, 12.52, 11.18, 11.62, 11.62, 12.52, 13.86, 11.4, 10.0, 8.93, 9.2, 11.18, 12.96, 14.3, 13.15, 12.96, 9.83, 8.49, -3.6, 0.0, 0.0, 4.6, 6.45, 11.53, 15.61, 17.88, 19.67, 20.12, 19.52, 15.25, 8.58, 9.22, 10.75, 9.44, 11.33, 10.43, 10.12, 11.68, 12.37, 12.89, 12.51, 13.19, 12.79, 12.45, 11.6, 10.73, 11.8, 10.75, 13.02, 13.99, 14.71, 15.12, 15.81, 16.55, 15.57, 15.65, 16.54, 16.09, 15.65, 15.43, 4.52, -7.69, -8.85, -5.2, -4.15, -4.81, -3.68, -3.93, -2.2, 0.0, 5.15, 9.8, 10.3, 10.77, 10.73, 12.39, 6.2, 8.31, 9.48, 9.48, 13.49, 13.49, 13.91, 13.91, 13.99, 13.91, 14.05, 13.92, 13.02, 12.03, 10.48, 9.32, 11.03, 10.0, 10.0, 10.38, 11.28, 12.07, 12.07, 11.18, 11.18, 10.73, 11.18, 11.62, 11.91, 13.44, 10.4, 10.28, 9.39, 10.28, 11.62, 10.41, 9.48, 12.39, 10.8, 10.28, 0.0, 0.0, 0.0, 4.24, 15.27, 18.78, 19.22, 17.97, 17.2, 16.22, 14.11, 9.8, 8.94, 8.94, 8.87, 10.12, 9.8, 10.12, 10.12, 10.86, 12.51, 12.51, 12.9, 13.07, 12.98, 12.3, 11.09, 10.75, 9.49, 10.75, 12.02, 13.02, 14.13, 14.21, 15.85, 16.66, 16.9, 14.6, 12.22, 13.02, 14.03, 13.41, 4.95, -9.48, -8.22, -7.24, -5.2, -5.31, -7.59, -8.85, -3.58, 0.0, 6.2, 8.66, 11.77, 13.99, 4.24, 2.63, 2.63, 4.98, 9.48, 10.47, 13.49, 13.49, 13.91, 13.99, 13.99, 13.99, 14.17, 14.05, 13.02, 12.03, 10.48, 9.14, 10.16, 10.27, 10.18, 11.4, 11.28, 12.07, 12.07, 12.07, 12.52, 11.18, 10.18, 11.28, 10.73, 12.07, 12.52, 11.62, 11.18, 6.95, 10.28, 4.6, 6.45, 9.97, 11.46, 12.07, 11.18, 11.6, 4.95, 12.96, 17.19, 14.51, 12.16, 11.88, 12.39, 11.88, 10.82, 10.82, 9.8, 9.8, 9.48, 9.48, 8.59, 8.87, 10.12, 10.86, 12.13, 12.5, 12.79, 12.87, 12.14, 11.5, 9.12, 8.05, 10.02, 11.88, 11.88, 12.87, 13.55, 13.76, 14.75, 17.42, 18.08, 18.21, 13.7, 10.65, 11.99, 12.27, -14.3, -9.8, -8.22, -7.54, -7.13, -10.75, -10.43, -9.49, -2.5, 3.58, 7.13, 9.39, 13.59, -0.0, -0.0, -0.0, 2.54, 6.9, 10.47, 11.5, 13.49, 13.49, 13.49, 13.99, 13.99, 13.75, 14.17, 13.64, 13.19, 12.23, 10.48, 8.76, 9.77, 9.86, 10.38, 10.84, 11.28, 12.07, 10.8, 11.2, 11.2, 11.71, 13.01, 12.58, 11.45, 11.45, 11.62, 11.18, 11.18, 11.18, 8.4, 6.64, 8.8, 12.07, 13.41, 13.41, 12.96, 13.44, 12.33, 18.78, -0.0, 3.47, 7.44, 10.12, 10.12, 10.75, 10.75, 10.43, 9.8, 9.48, 9.17, 8.59, 8.87, 9.8, 10.99, 12.13, 12.79, 13.07, 13.28, 12.45, 11.26, 10.12, 5.81, 6.16, 9.92, 11.7, 12.35, 12.65, 13.8, 14.29, 14.36, 14.99, 15.72, 16.53, 17.98, 15.65, 11.6, 0.0, -12.07, -10.35, -9.62, -9.44, -8.93, -10.05, -8.83, -4.81, 0.0, 5.48, 7.0, 0.0, -0.0, -0.0, 2.63, -0.0, 2.63, 9.48, 11.5, 12.45, 13.49, 13.23, 13.23, 13.75, 13.75, 13.75, 13.75, 13.75, 13.11, 12.23, 10.48, 8.8, 9.8, 9.86, 11.21, 10.84, 11.71, 11.87, 11.87, 12.52, 12.96, 14.3, 14.75, 15.65, 15.2, 14.75, 15.2, 14.3, 12.96, 9.6, 9.6, 8.4, 9.83, 9.83, 11.51, 13.86, 14.3, 13.86, 13.86, -0.0, -6.4, -0.0, 6.2, 8.58, 10.75, 10.43, 11.38, 11.06, 9.8, 9.8, 9.8, 9.48, 10.65, 11.53, 12.74, 12.98, 12.98, 13.09, 13.09, 12.3, 10.12, 5.31, 5.81, 8.93, 10.76, 13.06, 14.13, 13.59, 14.56, 15.09, 15.38, 14.19, 14.79, 15.61, 15.68, 16.39, 14.75, -0.0, -11.71, -13.44, -9.22, -7.98, -9.0, -8.77, -6.35, -2.64, 0.0, 0.0, -11.06, -6.2, -0.0, -0.0, -0.0, -0.0, 4.98, 10.37, 12.72, 12.72, 13.07, 13.23, 13.23, 13.33, 13.75, 13.75, 13.75, 13.75, 13.23, 12.15, 10.13, 8.8, 9.2, 10.27, 11.62, 10.38, 11.45, 12.3, 12.3, 13.41, 13.41, 13.41, 13.41, 13.99, 15.2, 15.2, 14.84, 14.39, 14.75, 13.41, 12.07, 12.07, 12.52, 12.14, 10.96, 12.27, 12.58, 11.18, 11.62, 8.22, -0.0, -0.0, 7.2, 9.42, 9.66, 9.22, 9.71, 11.06, 10.43, 10.43, 9.17, 10.47, 12.39, 13.32, 13.32, 13.31, 12.86, 12.86, 12.42, 11.87, 9.17, 3.47, 5.64, 11.38, 13.97, 15.11, 15.12, 15.43, 15.2, 14.68, 14.75, 15.2, 15.2, 15.65, 16.09, 15.2, 14.66, 12.39, -0.0, -16.09, -9.42, -9.42, -9.0, -8.53, -6.8, -5.63, -8.58, -13.99, -12.39, -4.24, -0.0, -0.0, -0.0, -0.0, 6.9, 11.99, 12.72, 13.15, 13.07, 13.49, 13.23, 13.33, 13.75, 13.75, 13.75, 13.75, 13.23, 11.88, 10.53, 10.09, 11.92, 11.92, 11.2, 11.2, 10.79, 11.16, 12.72, 12.72, 13.41, 13.41, 9.8, 0.0, 9.17, 7.9, 6.95, 6.2, 11.06, 13.57, 11.53, 10.75, 13.59, 13.86, 12.52, 11.62, 11.18, 11.18, 10.28, 7.59, -0.0, -0.0, -0.0, 3.96, 7.44, 8.1, 9.22, 10.75, 11.44, 11.54, 11.87, 12.04, 13.59, 13.86, 13.86, 12.96, 12.07, 12.07, 11.62, 11.16, 4.38, 3.47, 8.85, 13.99, 15.53, 15.99, 16.47, 16.09, 15.39, 13.7, 13.48, 13.7, 14.66, 14.31, 13.8, 14.16, 14.75, 14.75, 15.18, 16.99, 0.0, -7.8, -6.47, -7.4, -8.43, -9.8, -12.72, -12.96, -8.85, -3.04, -0.0, -0.0, -0.0, 2.43, 10.43, 13.15, 13.32, 13.67, 13.07, 13.15, 13.57, 13.33, 13.75, 13.75, 13.75, 13.75, 13.33, 11.88, 11.34, 11.44, 10.8, 12.18, 12.74, 11.5, 12.79, 11.8, 10.43, 9.48, 9.17, 9.17, 6.2, 0.0, 4.52, 6.45, 4.2, 3.39, 4.66, 8.58, 10.43, 11.7, 11.06, 13.86, 12.07, 11.18, 10.73, 9.39, 10.4, 5.8, 5.8, 4.1, 5.2, 5.2, 8.22, 8.53, 9.77, 9.96, 11.44, 12.16, 12.0, 12.42, 13.15, 13.15, 12.96, 12.52, 11.4, 11.28, 11.62, 9.48, 4.52, 6.8, 14.39, 15.49, 16.09, 16.09, 16.09, 16.54, 13.28, 10.52, 10.52, 10.73, 12.5, 13.48, 13.75, 14.3, 15.2, 13.59, 15.27, 15.19, 18.33, 18.33, 8.0, 16.12, 15.2, 13.15, 12.96, 12.52, -5.4, -2.93, -1.98, -0.0, -0.0, 5.48, 12.65, 13.99, 13.72, 13.59, 13.35, 13.15, 13.57, 13.99, 13.75, 13.75, 13.75, 13.99, 13.57, 12.4, 11.88, 12.56, 12.23, 12.56, 13.07, 12.42, 13.99, 13.02, 13.42, 13.41, 12.33, 12.33, 9.42, 4.66, 3.58, 4.1, 3.25, 3.25, 4.81, 8.31, 10.79, 12.3, 12.07, 11.18, 10.0, 11.71, 11.62, 11.62, 8.53, 7.69, 7.93, 6.0, 8.22, 8.22, 7.9, 8.93, 8.94, 9.58, 10.8, 11.26, 10.43, 10.6, 10.6, 10.75, 12.27, 13.59, 14.42, 0.0, -8.53, -9.8, 5.23, 12.01, 15.27, 15.93, 15.2, 14.88, 14.65, 14.13, 15.65, 0.0, 1.77, 8.3, 12.42, 12.79, 13.86, -0.0, -10.12, 16.09, 0.0, 0.0, 17.43, 16.54, 17.59, 15.78, 12.65, 11.5, 11.62, 12.07, 5.2, -0.0, -2.37, -0.0, 2.28, 7.36, 12.81, 13.7, 14.16, 14.3, 13.35, 13.15, 13.57, 13.99, 13.99, 13.99, 13.99, 13.99, 13.57, 12.4, 12.4, 12.7, 13.19, 12.79, 12.15, 11.02, 11.2, 13.19, 14.39, 14.67, 13.95, 13.18, 13.02, 12.87, 9.48, 9.17, 8.85, 5.24, 6.71, 7.27, 10.18, 11.62, 11.62, 9.83, 8.93, 9.55, 10.28, 11.45, 8.85, 7.44, 7.69, 7.44, 6.7, 7.9, 7.27, 6.64, 9.3, 9.67, 10.04, 8.53, 7.11, 8.28, 8.78, 9.24, 9.01, 10.08, 10.66, 10.75, -11.6, -14.3, 3.42, 12.96, 15.69, 12.22, 6.14, 6.91, 9.52, 10.96, 7.77, -0.0, -7.0, 0.0, 9.17, 12.96, -0.0, -4.38, -7.0, -11.7, 16.99, 16.99, -0.0, 12.01, 14.3, 16.48, 11.33, 9.84, 10.62, 11.28, 10.38, 5.2, -0.0, -0.0, 2.54, 10.73, 13.32, 14.22, 13.86, 13.86, 13.15, 13.15, 13.64, 14.07, 14.07, 13.99, 13.99, 13.57, 13.33, 12.92, 12.81, 13.11, 13.52, 13.59, 13.99, 13.41, 12.79, 11.99, 11.77, 12.18, 12.18, 11.58, 11.99, 12.21, 12.45, 12.45, 12.45, 11.99, 10.99, 9.24, 10.62, 11.62, 11.62, 11.18, 9.97, 9.54, 10.28, 10.6, 8.22, 5.4, 5.6, 8.85, 8.53, 9.2, 6.95, 6.95, 7.59, 6.7, 6.7, 5.2, 4.58, 5.6, 5.63, 5.81, 6.69, 7.8, 8.9, 12.36, 10.01, -5.8, -0.0, 10.61, 9.39, 1.58, 1.13, 3.01, 6.42, 9.56, 10.35, 11.0, 8.45, -17.88, -10.75, -0.0, -0.0, -0.0, -0.0, 8.0, 12.01, 14.79, 13.59, 14.42, 14.47, 14.9, 15.99, 14.4, 13.7, 12.08, 10.46, 7.9, 3.68, -0.0, 2.93, 11.99, 13.86, 13.86, 13.86, 13.86, 13.15, 13.15, 13.21, 13.64, 14.07, 13.57, 13.57, 13.57, 13.57, 13.57, 13.49, 13.23, 13.64, 14.05, 14.88, 14.39, 14.2, 13.77, 13.19, 13.15, 13.15, 13.15, 13.56, 14.38, 14.6, 14.6, 13.35, 13.67, 13.32, 12.68, 11.36, 11.53, 11.91, 10.41, 9.75, 9.33, 9.39, 10.28, 9.2, 10.73, 11.62, 11.18, 11.18, 11.18, 9.83, 9.83, 4.4, 5.0, 3.53, 3.68, 6.2, 6.45, 6.0, -0.0, 9.17, 6.7, 8.85, 14.3, 13.29, 6.21, -0.0, 2.89, -0.0, -1.68, -0.0, 2.21, 4.91, 5.53, 8.47, 13.54, 16.1, 10.89, -14.75, -12.07, -10.75, 5.51, 11.0, 12.96, 14.88, 15.59, 15.34, 13.86, 13.86, 14.3, 15.27, 17.46, 14.11, 13.27, 10.62, 9.46, 7.15, 2.82, 5.6, 13.41, 12.96, 13.41, 12.39, 10.12, 13.15, 13.15, 13.15, 13.57, 13.57, 13.57, 13.57, 13.57, 13.57, 13.57, 13.49, 13.91, 13.91, 14.05, 14.88, 15.29, 15.15, 14.99, 14.58, 14.18, 13.77, 14.11, 14.53, 15.27, 15.27, 15.69, 15.27, 14.84, 14.42, 14.31, 13.44, 12.27, 11.61, 10.52, 9.97, 9.33, 10.28, 9.39, 11.18, 10.28, 10.73, 11.62, 10.73, 10.73, 9.39, 9.83, 9.83, 7.27, 7.59, 7.59, 9.6, 9.2, 9.83, 0.0, -6.32, -6.64, 0.0, 14.3, 15.47, 10.12, 3.32, -0.0, -4.55, -4.24, -0.0, 3.47, 5.65, 6.52, 7.6, 12.57, 15.8, 17.4, 12.65, -9.8, -11.38, 5.51, 11.73, 13.46, 14.88, 15.59, 15.77, 13.53, 12.42, 12.52, 11.71, 13.86, 13.59, 12.72, 11.85, 9.96, 8.85, 6.7, 9.17, 11.6, 9.48, 7.69, 6.4, 6.4, 13.15, 13.15, 13.15, 13.33, 13.57, 13.57, 13.57, 13.57, 13.57, 13.57, 13.99, 13.91, 13.91, 14.42, 14.84, 15.18, 15.6, 15.91, 15.56, 15.15, 14.58, 14.94, 15.27, 15.79, 15.69, 15.79, 15.79, 15.07, 14.93, 14.51, 14.75, 14.75, 13.32, 11.18, 10.08, 8.48, 9.83, 9.83, 11.18, 10.73, 10.28, 10.73, 10.73, 9.83, 9.83, 9.83, 9.83, 9.83, 10.28, 9.83, 10.28, 9.2, 9.83, 8.94, -3.8, -2.69, 0.0, 9.3, 13.41, 11.12, 5.2, -1.84, -6.5, -5.54, -1.84, 1.98, 2.72, 5.46, 9.17, 15.74, 17.99, 17.35, 16.79, 16.54, -0.0, 5.8, 10.77, 13.84, 14.47, 14.56, 15.19, 15.02, 14.23, 12.71, 11.62, 12.07, 13.86, 12.87, 11.44, 10.12, 9.8, 5.6, 7.44, 6.9, 5.8, 4.24, 4.38, 4.38, 13.15, 13.15, 13.57, 13.15, 13.15, 13.57, 13.57, 13.99, 13.57, 13.57, 13.91, 13.91, 14.42, 14.42, 14.84, 14.75, 15.01, 15.6, 16.02, 16.02, 15.49, 15.07, 15.36, 15.36, 15.36, 15.44, 15.18, 15.07, 15.07, 15.49, 16.21, 16.3, 15.55, 13.88, 8.48, 8.77, 9.21, 10.73, 10.28, 10.28, 10.73, 8.94, 9.83, 8.94, 10.28, 10.28, 9.2, 9.2, 9.2, 9.83, 9.83, 9.39, 8.91, 9.39, 6.64, 2.97, 4.4, 8.23, 10.96, 11.84, 7.24, -0.0, -6.14, -8.43, -5.46, -1.54, -0.0, 3.96, 8.83, 13.91, 16.76, 17.59, 17.81, 16.48, 12.33, 7.26, 11.89, 15.14, 15.54, 15.19, 14.39, 14.33, 13.77, 12.74, 4.1, -8.85, 12.52, 4.52, 6.6, 10.43, 11.16, 6.94, 3.14, 5.15, 5.15, 4.1, 4.24, 4.24, 13.15, 13.15, 13.57, 13.57, 13.15, 13.15, 13.57, 13.57, 13.99, 13.91, 13.91, 14.33, 14.42, 14.42, 14.33, 14.33, 15.01, 15.18, 15.6, 15.87, 15.36, 15.36, 14.93, 14.51, 14.93, 15.44, 15.87, 15.6, 15.49, 16.32, 16.73, 17.15, 17.07, 15.61, 12.04, 9.54, 9.03, 10.08, 10.73, 10.28, 9.83, 9.83, 9.83, 9.83, 10.28, 10.28, 10.28, 9.75, 9.33, 9.83, 9.83, 9.83, 9.83, 9.83, 9.83, 9.54, 9.54, 10.08, 11.18, 11.4, 8.94, 2.1, -3.82, -6.95, -7.81, -4.83, -2.82, -0.0, 6.45, 11.06, 14.93, 17.86, 19.3, 16.84, 12.56, 9.87, 13.96, 15.97, 16.79, 14.97, 14.33, 15.49, 15.16, 9.8, -0.0, -5.8, -0.0, -0.0, -0.0, 7.0, 11.06, 4.38, -0.0, -0.0, 2.72, 2.28, 3.56, 3.56, 13.15, 13.15, 13.15, 13.57, 13.15, 13.15, 13.57, 13.57, 13.91, 13.91, 13.91, 14.33, 14.75, 14.84, 14.33, 16.12, 13.81, 14.75, 15.01, 14.75, 15.18, 15.44, 14.93, 15.96, 14.56, 15.9, 13.05, 15.77, 16.7, 15.27, 16.64, 17.15, 17.15, 16.73, 15.18, 12.09, 9.93, 9.46, 9.6, 11.18, 10.28, 10.28, 10.28, 9.83, 10.28, 10.28, 9.83, 9.83, 9.83, 9.83, 9.83, 9.83, 9.83, 9.83, 9.83, 10.28, 9.83, 10.73, 11.62, 11.46, 8.94, 2.6, -0.0, -1.75, -3.49, -5.7, -4.05, -0.0, 6.42, 11.6, 14.39, 17.39, 21.62, 20.16, 17.56, 16.54, 16.09, 16.5, 17.17, 17.15, 15.78, 16.12, 16.15, 13.15, 9.8, 12.96, 14.3, 14.75, -0.0, 10.75, 11.7, 8.68, -0.0, -2.63, -0.0, 2.72, 2.63, 2.63, 13.15, 13.15, 13.15, 13.15, 13.15, 13.15, 13.57, 13.57, 13.91, 13.91, 13.64, 14.05, 14.47, 14.75, 14.75, 14.33, 13.91, 13.81, 15.09, 14.42, 16.27, 15.27, 14.94, 16.19, 15.11, 15.49, 15.69, 15.16, 16.12, 16.21, 16.32, 16.64, 16.73, 16.73, 16.54, 14.79, 12.58, 11.28, 10.08, 10.18, 11.15, 11.14, 10.7, 10.28, 10.73, 11.18, 10.28, 10.28, 9.83, 9.39, 9.39, 9.39, 9.39, 9.83, 8.94, 9.39, 10.73, 9.83, 10.62, 11.03, 8.23, 3.25, -0.0, -0.0, -2.97, -5.46, -4.6, -0.0, 9.3, 12.83, 15.12, 16.84, 22.67, 23.21, 18.78, 15.19, 11.38, 12.7, 15.61, 15.65, 15.17, 16.35, 17.77, 16.99, 9.17, 0.0, 0.0, 14.3, 14.75, 14.75, 15.65, 11.38, -0.0, -6.4, -0.0, 2.89, 2.81, 2.81, 13.15, 13.15, 13.15, 13.15, 13.15, 13.15, 13.15, 13.57, 13.99, 14.33, 13.64, 14.05, 14.47, 14.47, 14.75, 14.75, 13.91, 13.91, 12.14, 14.11, 16.12, 15.58, 15.69, 15.07, 15.91, 15.91, 15.27, 16.21, 16.64, 17.15, 17.15, 16.73, 16.73, 16.91, 16.48, 16.29, 14.53, 12.74, 11.42, 10.52, 11.08, 11.6, 11.15, 10.7, 10.73, 11.62, 9.83, 9.83, 10.28, 9.83, 8.94, 9.39, 9.39, 9.83, 10.28, 9.83, 10.28, 10.2, 10.62, 10.14, 9.2, 3.11, -0.0, -0.0, -2.7, -3.39, -4.48, -0.0, 8.85, 12.3, 14.31, 16.66, 21.09, 21.46, 17.26, 10.87, 7.6, 9.74, 12.11, 15.41, 16.54, 16.12, 17.91, 17.59, 16.48, 13.41, 13.19, 12.65, 14.42, 14.3, 14.75, 6.8, -0.0, -8.58, -3.36, -0.0, 2.81, 2.81, 12.92, 13.15, 13.15, 13.15, 13.15, 13.15, 13.15, 13.57, 13.99, 14.42, 14.17, 14.05, 14.05, 14.47, 14.47, 14.47, 14.05, 13.64, 13.64, 15.6, 15.91, 15.79, 15.07, 15.18, 16.02, 16.96, 16.44, 15.6, 15.87, 16.3, 16.73, 16.97, 16.97, 16.97, 16.54, 16.73, 15.41, 13.76, 12.43, 11.09, 11.53, 11.6, 11.6, 11.18, 11.18, 11.18, 10.73, 9.83, 9.39, 9.39, 8.94, 9.39, 9.83, 9.83, 9.83, 10.28, 10.58, 10.84, 10.65, 9.83, 8.67, 2.02, -0.0, -0.0, -1.52, -1.98, -4.65, -0.0, 3.68, 4.24, 7.32, 13.36, 16.65, 16.74, 0.0, 1.77, 4.34, 5.8, 7.8, 11.06, 16.54, 15.19, 14.19, 15.45, 14.88, 12.52, 11.33, 13.39, 14.84, 10.12, 14.3, -0.0, -0.0, -8.18, -7.69, -0.0, 3.47, 3.47, 12.92, 12.92, 12.92, 13.15, 13.15, 13.15, 13.57, 13.57, 13.99, 14.42, 14.42, 14.42, 14.47, 14.47, 14.47, 14.16, 14.05, 13.64, 14.05, 15.29, 16.02, 15.18, 14.33, 14.33, 15.94, 16.8, 17.23, 16.8, 16.37, 15.51, 16.15, 16.15, 16.15, 16.15, 16.29, 16.29, 15.85, 14.65, 12.94, 11.6, 11.6, 11.6, 11.62, 11.62, 11.62, 11.62, 11.62, 9.39, 8.94, 9.39, 9.39, 9.83, 9.83, 9.83, 10.28, 10.73, 10.96, 11.35, 11.18, 8.94, 6.64, -0.0, -0.0, -0.0, -1.91, -2.45, -0.0, -0.0, -1.58, -0.0, 4.38, 11.53, 17.17, -16.12, -10.84, -3.04, 0.0, 1.65, 1.73, 2.16, 10.75, 14.53, 13.02, 13.38, 13.59, 13.01, 12.27, 13.29, 14.94, 14.84, -9.8, -13.86, -10.12, -10.12, -9.48, -0.0, 3.14, 3.14, 12.92, 12.92, 13.15, 13.15, 12.92, 12.92, 12.92, 13.33, 13.99, 14.42, 14.42, 14.84, 14.58, 14.58, 14.58, 14.16, 14.16, 13.64, 14.47, 14.88, 15.6, 16.02, 15.18, 14.15, 14.64, 16.15, 17.02, 17.02, 17.02, 16.58, 15.75, 15.75, 15.75, 15.9, 15.87, 15.87, 15.87, 15.09, 13.33, 11.6, 11.62, 11.18, 11.18, 11.18, 11.62, 11.18, 11.62, 10.28, 9.83, 9.83, 10.28, 9.83, 9.83, 8.94, 9.83, 10.28, 10.28, 11.11, 11.09, 10.73, -0.0, -1.47, -0.0, -0.0, -0.0, 2.72, 3.14, -0.0, -2.6, -1.28, 4.6, 19.75, 21.71, 19.99, -19.22, -15.19, 0.0, 0.0, 0.0, -1.73, 0.0, 13.57, 14.55, 15.27, 15.27, 14.84, 14.4, 14.75, 13.99, 13.39, 14.3, -11.16, -11.6, -13.41, -12.96, -0.0, -0.0, -0.0, 13.15, 13.15, 13.07, 13.15, 13.15, 12.92, 12.81, 13.23, 13.75, 14.17, 14.42, 14.42, 14.58, 14.58, 14.58, 14.58, 14.47, 13.92, 14.05, 14.88, 15.18, 16.02, 16.3, 15.87, 15.27, 15.27, 16.78, 17.22, 17.22, 16.78, 16.78, 16.34, 15.45, 15.45, 15.9, 15.9, 15.99, 15.55, 14.22, 12.05, 11.18, 10.73, 10.73, 11.18, 11.18, 11.18, 11.18, 11.18, 10.73, 10.28, 9.81, 10.28, 8.94, 8.94, 8.94, 9.83, 10.28, 8.94, 9.97, 8.18, 2.39, -0.0, -0.0, -0.0, 4.48, 5.15, 1.77, -0.0, -0.0, 8.82, 10.96, 15.25, 20.22, 22.79, 20.75, -14.54, -13.59, 0.0, 0.0, -1.98, -2.43, 2.98, 12.16, 14.42, 15.05, 14.75, 14.16, 13.57, 11.52, 10.1, 11.38, 13.15, -7.19, -12.72, -12.52, -3.04, -2.37, -2.37, 13.15, 13.15, 13.07, 13.15, 12.92, 12.92, 12.81, 13.23, 13.64, 13.75, 14.17, 14.17, 14.58, 14.58, 14.84, 14.84, 14.47, 14.47, 14.47, 14.47, 14.75, 15.18, 16.3, 16.3, 16.15, 15.71, 15.9, 16.78, 17.22, 17.34, 16.9, 16.97, 16.52, 16.46, 16.01, 16.0, 16.0, 16.0, 15.62, 13.39, 11.16, 11.18, 11.18, 11.18, 11.16, 11.16, 11.18, 11.18, 11.18, 10.28, 10.26, 10.26, 10.28, 9.83, 9.83, 9.83, 9.83, 8.94, 9.03, 7.27, 5.7, 3.82, 1.84, 3.98, 5.98, 3.44, -0.0, -0.0, 5.32, 8.93, 9.8, 12.98, 15.42, 18.76, 23.06, 20.75, -9.4, -5.94, 0.0, -2.45, -1.9, 0.0, 4.81, 8.58, 14.47, 15.34, 12.27, 10.12, 9.02, 7.95, 10.22, 14.06, 13.59, -7.19, -12.07, -2.93, -0.0, -0.0, 13.15, 13.15, 13.15, 12.92, 12.92, 12.92, 12.81, 12.81, 13.23, 13.75, 14.17, 14.17, 14.84, 14.42, 14.84, 14.84, 14.84, 14.47, 14.47, 14.75, 14.75, 15.01, 15.44, 15.87, 16.15, 16.15, 15.75, 16.34, 16.89, 16.89, 16.97, 16.97, 16.99, 16.99, 16.54, 16.54, 16.54, 16.54, 16.54, 15.65, 13.86, 12.07, 11.62, 11.62, 11.16, 10.71, 11.18, 11.18, 10.73, 10.28, 10.28, 10.26, 10.26, 9.81, 9.79, 9.39, 9.83, 8.94, 7.53, 6.79, 6.87, 6.4, 5.75, 4.6, 3.82, 1.33, -0.0, 3.53, 6.45, 9.16, 10.55, 10.99, 13.35, 15.8, 17.98, 22.27, 21.04, -9.0, -3.9, 0.0, 0.0, 0.0, 0.0, 6.0, 12.79, 9.49, 8.93, 8.72, 9.22, 8.51, 9.8, 12.65, 16.8, 13.67, -9.17, -8.53, -2.28, -2.28, 12.92, 12.92, 12.92, 12.92, 12.92, 13.07, 13.07, 13.07, 13.23, 13.23, 13.75, 14.42, 14.42, 14.42, 14.42, 14.49, 14.84, 14.84, 14.75, 14.75, 14.75, 15.01, 15.08, 15.27, 15.71, 15.71, 15.9, 16.0, 16.46, 16.52, 16.52, 16.54, 16.99, 16.99, 16.99, 16.54, 16.54, 16.99, 16.99, 16.09, 14.75, 12.96, 11.62, 10.73, 10.28, 10.73, 10.73, 10.73, 10.73, 10.28, 10.28, 10.73, 10.71, 10.26, 10.71, 9.79, 9.39, 8.87, 7.6, 6.79, 6.48, 6.77, 6.17, 5.0, 3.92, 1.98, 2.19, 3.25, 7.59, 10.41, 12.66, 12.51, 12.35, 13.23, 15.68, 17.3, 22.59, 22.35, -5.2, 0.0, 0.0, 14.3, 13.59, 9.8, 8.66, 7.58, 7.82, 8.97, 10.47, 10.12, 10.94, 13.19, 17.23, 16.02, 13.32, -9.17, -3.04, -3.04, 12.81, 12.81, 12.81, 12.81, 13.07, 13.07, 13.07, 13.49, 13.49, 13.49, 13.91, 14.42, 14.84, 15.08, 15.13, 14.49, 14.49, 14.42, 14.58, 14.58, 15.01, 15.08, 15.27, 15.27, 15.31, 15.45, 15.57, 16.01, 16.52, 16.52, 16.54, 16.54, 16.54, 16.54, 16.54, 16.54, 16.54, 16.99, 16.99, 16.54, 15.65, 13.41, 11.62, 10.28, 9.83, 10.26, 10.73, 11.62, 11.62, 10.73, 10.73, 10.73, 10.71, 10.26, 10.71, 10.71, 10.73, 10.04, 8.4, 7.06, 6.24, 6.48, 5.21, 4.54, 5.0, 3.32, 3.68, 5.7, 9.83, 11.18, 12.88, 13.63, 12.79, 12.96, 13.44, 16.22, 18.69, 22.05, 21.9, 9.8, 18.33, 12.27, 12.45, 11.42, 10.75, 9.31, 8.58, 10.75, 12.82, 13.34, 12.56, 13.77, 13.99, 16.4, 14.01, 12.74, -0.0, -0.0, 12.54, 12.54, 12.81, 12.81, 13.07, 12.98, 13.07, 13.49, 13.49, 13.49, 13.49, 14.33, 14.42, 15.08, 15.56, 15.13, 14.7, 14.64, 14.64, 14.64, 15.27, 15.27, 15.31, 15.45, 15.45, 15.45, 15.12, 15.57, 16.07, 16.07, 16.07, 16.09, 16.09, 16.09, 16.54, 16.54, 16.54, 16.54, 16.99, 16.99, 16.09, 14.3, 12.52, 11.18, 10.73, 10.28, 12.07, 13.41, 13.41, 12.52, 11.18, 11.18, 11.16, 10.71, 10.71, 10.73, 10.71, 10.81, 9.6, 8.06, 6.32, 6.18, 4.99, 4.6, 4.6, 2.95, 3.53, 6.21, 9.11, 9.83, 11.02, 10.94, 14.21, 15.9, 14.53, 11.88, 15.59, 16.09, 18.74, 20.56, 20.12, 17.67, 14.95, 14.13, 13.59, 13.59, 13.27, 14.11, 14.28, 14.53, 13.67, 14.18, 14.21, 15.61, 14.79, 13.37, 10.82, 10.82, 12.4, 12.4, 12.81, 12.7, 12.81, 12.7, 12.7, 13.49, 13.49, 13.91, 13.91, 13.49, 14.42, 14.42, 15.13, 15.13, 15.13, 15.27, 15.27, 15.27, 15.27, 15.31, 15.45, 15.45, 15.45, 15.45, 15.12, 14.68, 15.18, 15.63, 16.07, 15.63, 15.65, 15.65, 16.09, 16.09, 16.54, 16.54, 16.54, 16.99, 16.54, 15.2, 12.96, 11.18, 10.73, 10.28, 12.96, 14.3, 14.3, 13.41, 11.62, 11.18, 11.62, 11.16, 11.16, 10.73, 11.04, 11.08, 10.4, 8.68, 7.02, 5.76, 5.45, 6.42, 3.49, -0.0, 2.39, 6.45, 7.9, 7.27, 5.9, 7.27, 12.27, 17.8, 19.73, 9.09, 5.27, 12.16, 14.99, 18.78, 21.46, 20.38, 15.25, 15.63, 16.88, 18.49, 17.58, 15.61, 14.55, 14.11, 13.7, 14.16, 14.03, 14.08, 14.26, 13.41, 10.77, 10.77, 12.4, 12.4, 12.4, 12.39, 12.7, 12.7, 12.98, 13.49, 13.49, 13.91, 13.91, 13.91, 13.99, 14.84, 15.08, 15.13, 15.31, 15.75, 15.71, 15.75, 15.75, 15.75, 15.31, 15.31, 15.45, 15.45, 15.12, 14.23, 16.05, 14.73, 15.62, 16.07, 16.09, 15.65, 15.65, 16.09, 16.09, 16.54, 16.54, 16.54, 16.54, 15.65, 13.86, 11.18, 10.73, 11.18, 12.96, 14.75, 13.86, 12.52, 11.18, 11.62, 11.62, 11.62, 11.16, 11.11, 10.94, 11.08, 10.4, 9.3, 7.59, 6.18, 5.72, 5.59, 5.36, -0.0, -0.0, 3.82, 7.44, 8.59, 5.72, 7.27, 10.19, 16.64, 18.79, 19.59, -5.23, 0.0, 11.52, 15.97, 18.78, 13.28, 7.8, 14.57, 17.64, 19.77, 19.58, 17.2, 15.15, 13.41, 12.9, 13.09, 13.27, 13.02, 13.37, 12.74, 11.29, 11.29, 12.5, 12.5, 12.4, 12.39, 12.39, 12.7, 12.7, 13.49, 13.49, 13.91, 13.91, 13.99, 13.99, 13.99, 14.84, 15.08, 15.08, 15.08, 15.08, 15.56, 15.75, 15.75, 15.75, 15.31, 14.87, 15.01, 15.01, 14.23, 13.78, 15.61, 14.73, 15.62, 16.09, 16.09, 16.09, 16.09, 16.09, 16.54, 16.54, 16.54, 16.54, 16.09, 14.3, 12.07, 10.73, 11.62, 12.96, 13.86, 13.86, 11.62, 11.62, 12.07, 11.62, 11.61, 11.04, 10.94, 11.08, 10.91, 10.02, 9.37, 8.22, 5.82, 6.01, 5.69, 5.31, 5.06, -0.0, 1.75, 6.95, 8.24, 6.77, 8.73, 11.03, 15.38, 18.74, 23.86, -11.27, -4.52, 5.48, 14.39, 16.99, -0.0, -0.0, 11.7, 16.48, 18.11, 18.63, 17.4, 15.65, 13.67, 11.99, 11.5, 11.53, 12.13, 12.56, 12.45, 12.27, 12.27, 12.72, 12.72, 12.5, 12.4, 12.7, 12.7, 12.7, 13.23, 13.23, 13.99, 13.99, 14.17, 13.75, 13.99, 14.42, 14.84, 14.84, 14.84, 15.08, 15.51, 15.56, 16.0, 15.56, 15.75, 14.87, 15.01, 15.01, 14.57, 14.59, 14.68, 14.68, 15.18, 15.62, 15.65, 16.09, 16.09, 16.09, 16.09, 16.54, 16.54, 16.54, 16.54, 15.2, 12.96, 11.62, 11.62, 12.52, 13.86, 13.86, 12.07, 11.62, 12.07, 11.62, 11.57, 11.49, 10.81, 10.91, 10.55, 9.86, 8.82, 7.65, 6.4, 5.72, 6.01, 5.44, 5.46, 4.8, 3.65, 5.63, 7.27, 7.9, 9.67, 11.61, 13.28, 17.53, 22.18, 21.46, -4.55, 0.0, 0.0, -0.0, -0.0, -0.0, 16.99, 16.99, 17.43, 17.88, 16.27, 15.27, 11.8, 9.8, 9.8, 11.16, 12.66, 13.02, 12.74, 12.36, 12.36, 12.72, 12.72, 12.72, 12.72, 12.81, 12.7, 12.81, 13.23, 13.64, 13.99, 14.17, 14.17, 14.17, 13.99, 13.99, 14.42, 14.42, 14.42, 14.42, 14.84, 15.56, 15.56, 15.56, 15.75, 15.31, 15.01, 15.01, 14.57, 14.68, 15.12, 15.18, 15.18, 15.18, 15.2, 15.65, 15.65, 16.09, 16.09, 16.54, 16.54, 16.54, 16.09, 15.2, 13.41, 12.07, 11.62, 12.52, 13.41, 13.41, 12.96, 11.62, 11.62, 11.61, 11.57, 11.37, 11.08, 10.62, 10.13, 9.37, 8.22, 7.91, 7.65, 6.11, 6.01, 6.14, 5.29, 4.2, 4.83, 5.59, 7.27, 8.41, 10.19, 11.85, 12.72, 15.18, 16.6, 18.05, 19.08, 0.0, -12.33, -15.2, 16.09, 16.54, 16.54, 16.09, 15.78, 14.39, 13.23, 11.06, 10.75, 11.44, 12.39, 12.87, 12.72, 13.37, 13.25, 13.15, 13.15, 12.5, 12.5, 12.72, 12.72, 13.07, 13.07, 13.49, 13.49, 13.99, 13.99, 14.26, 14.17, 14.17, 13.99, 14.07, 14.26, 14.42, 14.42, 14.42, 15.08, 15.13, 15.56, 15.56, 15.75, 15.31, 15.01, 15.01, 14.68, 14.68, 15.18, 15.18, 15.2, 14.75, 14.75, 14.75, 15.2, 15.65, 15.65, 16.09, 16.09, 16.09, 16.09, 15.65, 13.41, 12.07, 11.62, 12.07, 12.96, 13.41, 12.96, 11.62, 11.62, 11.61, 11.49, 11.37, 11.08, 10.4, 10.13, 9.02, 8.52, 8.53, 7.6, 7.27, 5.82, 6.01, 5.29, 5.1, 5.1, 4.6, 5.86, 8.73, 9.3, 12.9, 14.18, 13.99, 14.53, 14.71, 16.75, 19.67, 22.8, -19.22, -15.65, 14.75, -0.0, -0.0, 3.79, 6.14, 7.4, 11.38, 11.87, 13.7, 14.03, 13.44, 13.75, 13.67, 13.74, 13.15, 13.15, 12.08, 12.08, 12.72, 12.72, 13.15, 13.15, 13.57, 13.57, 13.99, 13.84, 14.26, 14.17, 14.42, 14.42, 14.07, 14.07, 14.42, 14.64, 14.64, 15.13, 15.13, 15.13, 15.75, 15.78, 15.45, 15.01, 15.12, 14.68, 14.73, 15.18, 15.2, 15.2, 14.75, 14.75, 14.75, 14.75, 14.75, 15.2, 15.65, 16.09, 16.09, 16.09, 15.2, 12.96, 10.28, 10.71, 11.6, 12.5, 12.94, 12.95, 12.07, 11.62, 11.61, 11.04, 10.81, 10.49, 10.4, 9.76, 8.49, 8.49, 8.84, 8.21, 6.69, 6.3, 6.01, 6.14, 5.03, 5.31, 5.59, 5.86, 7.9, 8.75, 11.09, 14.13, 15.59, 13.62, 14.6, 16.66, 19.51, 20.39, -21.01, -16.99, -7.4, -5.23, -3.16, -0.0, 5.51, 9.42, 12.71, 13.99, 13.99, 14.55, 14.3, 14.3, 14.3, 12.96, 12.96, 13.32, 12.08, 12.08, 12.5, 12.72, 13.15, 13.15, 13.57, 13.57, 14.07, 13.84, 14.26, 14.49, 14.42, 14.49, 14.49, 14.07, 14.21, 14.7, 14.7, 15.31, 15.31, 15.34, 15.47, 15.91, 15.57, 15.12, 14.68, 14.73, 14.73, 14.73, 15.2, 14.75, 14.75, 14.75, 14.75, 14.75, 14.3, 15.2, 15.2, 15.65, 15.65, 16.09, 14.75, 12.07, 9.83, 10.71, 11.6, 12.5, 13.39, 12.95, 12.52, 11.62, 11.16, 11.04, 10.94, 10.66, 10.62, 10.16, 8.79, 8.53, 8.87, 8.19, 7.27, 6.3, 5.72, 5.59, 5.59, 5.2, 6.3, 6.3, 5.1, 6.45, 10.18, 14.36, 16.8, 17.59, 14.03, 13.39, 19.22, 14.54, -8.2, -15.19, -12.64, -8.0, -3.51, -0.0, 6.81, 11.45, 14.51, 14.71, 14.84, 14.75, 14.75, 14.3, 12.52, 12.49, 12.43, 12.96, 12.08, 12.08, 12.08, 12.5, 13.15, 13.15, 13.57, 13.64, 14.07, 14.07, 14.49, 14.49, 14.49, 14.49, 14.49, 14.27, 14.27, 14.27, 14.87, 14.87, 15.34, 15.47, 15.47, 15.57, 15.57, 15.18, 14.73, 14.73, 14.3, 14.3, 14.75, 14.75, 14.75, 14.75, 14.3, 14.75, 14.3, 14.3, 15.2, 15.2, 15.65, 15.65, 14.75, 12.05, 10.73, 12.07, 13.83, 14.28, 14.28, 13.84, 12.96, 12.07, 11.16, 11.11, 10.94, 10.81, 10.91, 9.63, 9.01, 8.53, 8.53, 8.53, 6.64, 6.95, 6.64, 6.64, 5.44, 5.72, 6.3, 5.98, 4.6, 5.45, 9.16, 12.16, 15.84, 17.46, 21.92, -2.72, -7.6, -11.06, -0.0, -0.0, -12.64, -12.64, -9.92, -0.0, 10.41, 16.79, 16.96, 16.44, 15.11, 15.2, 14.19, 12.45, 12.35, 11.93, 11.8, 12.43, 12.08, 12.08, 12.08, 12.5, 12.72, 13.15, 13.21, 13.64, 13.64, 14.31, 14.31, 14.27, 14.7, 14.7, 14.27, 14.27, 14.44, 14.44, 14.44, 15.03, 15.03, 15.03, 15.12, 15.57, 15.63, 15.63, 14.73, 14.3, 14.3, 14.3, 14.3, 14.75, 14.75, 14.75, 14.3, 14.3, 14.3, 13.86, 14.3, 14.75, 14.75, 15.2, 14.29, 12.5, 11.61, 12.96, 15.2, 15.62, 14.73, 14.28, 13.86, 12.52, 11.16, 11.12, 11.04, 11.37, 11.08, 10.02, 9.21, 8.49, 8.53, 8.53, 8.85, 7.56, 6.64, 6.64, 6.01, 5.86, 4.96, 5.21, 4.99, 6.17, 8.24, 9.82, 12.65, 15.55, 18.24, 26.37, -23.66, -19.08, -0.0, 4.23, -13.91, -17.81, -16.54, 17.88, 18.33, 18.33, 17.43, 16.54, 15.2, 14.19, 12.22, 11.99, 12.08, 11.64, 11.84, 11.84, 11.67, 11.67, 12.08, 12.08, 12.72, 12.79, 13.21, 13.64, 13.7, 13.88, 14.31, 14.31, 14.31, 14.31, 14.47, 14.47, 14.47, 14.44, 14.47, 14.59, 15.03, 15.03, 15.12, 15.12, 15.18, 15.18, 14.73, 14.3, 14.3, 13.86, 13.86, 13.86, 14.3, 14.3, 14.3, 13.86, 13.86, 13.41, 13.86, 14.3, 14.3, 14.29, 13.84, 12.5, 12.05, 13.39, 14.75, 15.2, 14.28, 13.84, 13.41, 12.07, 11.18, 11.61, 11.49, 11.4, 11.12, 10.16, 9.58, 8.45, 8.22, 8.87, 8.57, 7.9, 6.95, 6.64, 6.64, 5.86, 4.96, 4.4, 5.21, 6.11, 8.24, 8.47, 10.73, 14.28, 17.11, 23.06, 25.59, -0.0, -0.0, 12.89, -0.0, -20.56, -17.43, 0.0, 7.8, 14.51, 15.36, 15.04, 14.4, 13.09, 11.72, 11.87, 11.71, 11.95, 11.95, 11.95, 11.67, 11.67, 12.08, 12.08, 12.79, 12.79, 13.21, 13.21, 13.27, 13.7, 13.88, 14.31, 14.31, 14.47, 14.47, 14.47, 14.47, 14.47, 14.59, 14.59, 15.03, 15.03, 15.12, 15.12, 15.18, 15.18, 14.74, 14.3, 13.86, 13.86, 13.41, 13.41, 13.41, 13.86, 14.3, 13.41, 13.41, 13.41, 13.41, 13.4, 13.84, 13.84, 13.4, 12.06, 11.61, 12.95, 14.29, 14.28, 13.39, 12.5, 12.05, 11.18, 11.62, 11.61, 11.57, 11.4, 11.12, 10.4, 9.3, 8.78, 8.78, 9.12, 9.16, 9.16, 7.27, 6.3, 6.01, 6.14, 4.66, 4.4, 5.46, 6.32, 7.4, 9.08, 10.04, 11.39, 15.01, 19.12, 20.03, 22.78, 22.32, 18.33, -0.0, -0.0, -20.12, -12.96, 0.0, 10.19, 12.22, 12.42, 12.56, 12.46, 11.45, 11.87, 11.84, 12.07, 12.07, 12.07, 11.75, 11.75, 12.16, 12.36, 12.79, 12.79, 13.21, 13.21, 13.7, 13.7, 13.88, 14.31, 14.31, 14.31, 14.47, 14.47, 14.47, 14.47, 14.47, 14.59, 15.03, 15.12, 15.12, 15.13, 15.18, 15.18, 14.74, 14.3, 13.86, 13.41, 13.41, 13.41, 13.41, 13.41, 13.41, 13.41, 12.95, 13.4, 13.4, 13.4, 13.4, 13.4, 12.95, 12.06, 11.61, 12.05, 13.39, 13.39, 13.39, 12.05, 11.61, 11.62, 12.07, 11.61, 11.57, 11.56, 11.12, 10.16, 9.3, 8.78, 8.78, 9.02, 9.12, 8.82, 8.53, 6.95, 6.01, 5.2, 4.66, 4.66, 6.14, 6.11, 7.27, 9.08, 10.04, 11.42, 12.79, 15.8, 16.67, 16.31, 18.78, 24.79, -28.61, -26.37, -15.49, 19.67, 8.4, 10.19, 9.22, 9.77, 12.04, 11.71, 11.87, 10.8, 12.52, 12.52, 12.52, 12.52, 11.75, 11.75, 12.36, 12.36, 12.36, 12.85, 12.85, 13.27, 13.7, 13.88, 13.88, 13.88, 14.31, 14.31, 14.47, 14.47, 14.47, 14.47, 14.47, 14.59, 14.59, 15.12, 15.13, 15.13, 15.18, 15.18, 14.74, 14.3, 13.86, 13.86, 13.41, 12.96, 12.96, 12.96, 12.96, 12.95, 12.95, 12.95, 13.4, 12.95, 12.95, 12.95, 12.95, 11.61, 11.61, 12.07, 12.96, 12.95, 12.95, 12.05, 12.07, 12.07, 12.07, 11.57, 11.49, 11.56, 10.71, 10.02, 9.3, 8.78, 9.08, 9.3, 9.66, 9.12, 7.9, 6.69, 6.01, 4.94, 5.46, 5.46, 6.11, 6.17, 7.59, 8.73, 10.18, 10.56, 11.42, 13.39, 14.66, 14.92, 16.58, 19.76, -25.19, -25.48, -20.79, 22.35, 16.79, 9.92, 6.67, 9.17, 12.52, 12.52, 12.07, 12.07, 12.96, 12.96, 12.96, 12.96, 11.75, 11.75, 12.36, 12.42, 12.85, 12.85, 12.85, 13.27, 13.44, 13.88, 13.88, 13.88, 14.31, 14.47, 14.47, 14.47, 14.47, 14.47, 14.47, 14.59, 14.68, 15.13, 15.13, 15.13, 15.18, 15.18, 14.74, 14.3, 13.86, 13.86, 13.41, 12.96, 12.96, 12.5, 12.5, 12.5, 12.5, 12.5, 12.95, 12.95, 12.95, 12.95, 12.95, 12.05, 11.16, 12.07, 12.52, 12.5, 12.52, 12.07, 12.07, 12.07, 12.06, 11.57, 11.71, 11.56, 10.4, 9.21, 8.73, 8.78, 9.3, 9.3, 9.08, 9.12, 7.91, 6.69, 5.72, 5.59, 5.46, 6.69, 6.4, 6.69, 8.07, 9.16, 9.52, 9.76, 10.37, 12.37, 13.26, 13.61, 15.22, 18.75, 18.65, -26.46, -24.72, 16.44, 15.25, 10.43, 7.78, 12.07, 12.52, -12.52, -12.07, -11.62, -12.96, -12.96, -12.96, -12.96, 11.81, 11.81, 12.42, 12.42, 12.42, 12.85, 13.27, 13.44, 13.44, 13.44, 13.88, 14.03, 14.05, 14.49, 14.49, 14.49, 14.47, 14.47, 14.59, 14.15, 14.15, 14.69, 15.13, 15.13, 15.18, 15.18, 14.74, 14.29, 13.84, 13.84, 13.4, 13.4, 12.95, 12.5, 12.5, 12.06, 12.06, 12.5, 12.5, 12.5, 12.5, 12.5, 12.5, 12.05, 11.61, 12.05, 12.5, 12.5, 12.07, 12.07, 12.07, 12.07, 11.61, 11.57, 11.71, 11.39, 10.4, 9.21, 8.73, 8.73, 9.3, 9.3, 9.08, 8.84, 8.22, 7.59, 6.01, 6.01, 6.95, 6.95, 7.27, 6.69, 7.59, 8.35, 8.22, 8.97, 9.69, 10.65, 12.22, 13.26, 14.88, 16.97, 18.35, -26.02, -23.0, -7.92, 6.08, 4.1, 8.85, 6.7, -0.0, -11.62, -11.62, -12.07, -12.96, -12.96, -12.96, -12.96, 11.81, 11.81, 12.24, 12.42, 12.42, 12.85, 13.27, 13.44, 13.44, 13.88, 13.92, 14.05, 14.49, 14.49, 14.49, 14.49, 14.49, 14.6, 14.6, 14.6, 14.6, 14.69, 15.13, 15.13, 15.18, 14.74, 14.74, 14.29, 13.84, 13.4, 13.4, 13.4, 12.95, 12.5, 12.5, 12.06, 12.06, 12.06, 12.06, 12.5, 12.5, 12.5, 12.5, 12.05, 11.61, 12.5, 12.95, 12.5, 12.07, 12.07, 12.07, 12.06, 11.61, 11.57, 11.71, 10.91, 9.88, 8.65, 8.15, 8.38, 8.73, 8.94, 8.73, 8.84, 8.22, 7.59, 6.48, 6.18, 6.95, 7.13, 6.95, 6.3, 6.69, 7.36, 7.72, 8.07, 8.85, 9.59, 10.54, 12.92, 14.61, 16.49, 17.53, 17.07, -21.46, -19.28, -14.3, -7.78, -0.0, 4.1, 7.24, 8.53, 12.52, 12.96, 0.0, -9.17, -9.17, -9.17, 11.81, 11.81, 12.24, 12.42, 12.42, 12.85, 13.27, 13.44, 13.44, 13.92, 13.92, 13.92, 14.49, 14.49, 14.49, 14.49, 14.49, 14.6, 14.6, 14.6, 14.6, 14.69, 15.13, 15.13, 14.69, 14.69, 14.74, 14.29, 13.84, 13.84, 13.4, 13.4, 12.95, 12.5, 12.5, 12.06, 12.06, 12.06, 12.06, 12.06, 12.06, 12.06, 12.05, 12.05, 12.05, 12.5, 12.95, 12.52, 12.52, 12.52, 12.07, 12.06, 12.06, 11.49, 11.71, 10.91, 9.48, 8.65, 8.08, 8.65, 8.65, 8.65, 8.15, 8.82, 8.87, 8.22, 7.27, 6.95, 6.77, 6.48, 6.48, 6.95, 5.86, 6.98, 6.86, 7.54, 8.42, 8.42, 10.22, 11.95, 14.0, 15.25, 16.12, 17.51, 27.27, -23.25, -14.39, -9.8, -4.24, 3.81, 8.05, 10.3, 10.73, 13.57, 13.41, 12.96, 12.96, 12.96, 11.81, 11.99, 11.81, 12.24, 12.42, 12.42, 12.85, 13.44, 13.44, 13.92, 13.92, 14.35, 14.35, 14.49, 14.49, 14.49, 14.49, 14.6, 14.6, 14.6, 14.6, 14.69, 14.69, 14.69, 14.69, 14.69, 14.74, 14.29, 13.84, 13.84, 13.4, 13.4, 12.95, 12.95, 12.5, 12.06, 12.06, 12.06, 12.06, 12.06, 12.06, 12.05, 12.05, 12.05, 12.05, 12.5, 12.96, 12.52, 12.96, 12.52, 12.07, 12.06, 12.06, 11.49, 11.28, 10.42, 9.35, 8.37, 8.37, 8.55, 8.55, 8.55, 8.44, 8.53, 8.87, 8.57, 7.59, 6.77, 6.31, 6.31, 6.31, 6.77, 6.95, 4.4, 6.24, 7.14, 8.07, 8.85, 10.3, 11.76, 12.65, 14.26, 16.45, 15.58, -29.5, -18.6, -10.46, -10.43, -6.44, -0.0, 7.82, 9.42, 10.12, 10.82, 10.73, 10.73, 10.73, 10.73, 11.99, 11.99, 11.99, 12.42, 12.42, 12.42, 12.85, 13.27, 13.44, 13.92, 13.92, 14.35, 14.35, 14.49, 14.49, 14.49, 14.49, 14.49, 14.6, 14.6, 14.6, 14.6, 14.69, 14.69, 14.69, 14.69, 14.29, 14.29, 13.84, 13.4, 13.4, 12.95, 12.95, 12.95, 12.5, 12.5, 12.05, 12.05, 12.06, 12.06, 12.06, 12.5, 12.05, 12.05, 11.61, 11.61, 12.07, 12.52, 12.96, 12.52, 12.07, 12.07, 12.06, 11.49, 10.81, 10.0, 8.96, 8.55, 8.55, 8.82, 8.82, 8.37, 8.37, 8.86, 8.87, 8.9, 8.53, 7.36, 6.77, 6.04, 6.48, 7.27, 7.06, 4.8, 4.05, 5.43, 7.26, 9.26, 9.96, 10.66, 11.66, 14.03, 16.95, 20.03, -24.92, -9.4, -3.42, -5.15, -4.1, -0.0, 5.99, 9.06, 10.43, 10.12, 10.52, 10.52, 10.52, 10.52, 11.99, 11.99, 11.99, 11.99, 12.42, 12.42, 12.85, 12.85, 13.27, 13.32, 13.92, 13.92, 14.35, 14.35, 14.49, 14.49, 14.49, 14.49, 14.6, 15.05, 14.6, 14.6, 14.69, 14.69, 14.69, 14.29, 14.29, 14.29, 13.84, 13.4, 13.4, 12.95, 12.95, 12.5, 12.5, 12.5, 12.05, 12.5, 12.5, 12.5, 12.5, 12.5, 12.05, 12.05, 11.61, 12.05, 12.5, 12.52, 12.52, 12.07, 12.07, 12.07, 11.57, 11.49, 10.81, 9.51, 8.82, 8.82, 8.82, 9.07, 8.43, 8.27, 8.65, 8.5, 8.86, 8.57, 8.9, 7.9, 7.27, 6.95, 6.95, 7.27, 6.44, 5.69, 5.54, 5.0, 6.86, 8.85, 10.63, 10.63, 11.28, 12.65, 19.19, 19.31, -23.96, -10.58, -5.37, -0.0, -0.0, -0.0, 6.1, 9.22, 10.43, 10.86, 10.86, 10.77, 10.77, 10.77, 11.99, 11.99, 11.99, 12.14, 12.14, 12.58, 13.01, 13.44, 13.27, 13.27, 13.48, 13.92, 14.35, 14.35, 14.49, 14.49, 14.49, 14.49, 14.6, 15.05, 15.05, 14.6, 14.69, 14.69, 14.29, 14.29, 14.29, 13.84, 13.84, 13.4, 13.4, 12.95, 12.95, 12.5, 12.5, 12.05, 12.05, 12.5, 12.5, 12.5, 12.5, 12.5, 12.5, 12.05, 12.05, 12.5, 12.5, 12.5, 12.06, 12.06, 12.07, 11.62, 11.61, 11.04, 10.34, 9.2, 8.82, 8.82, 9.2, 9.2, 8.68, 7.9, 8.09, 8.15, 8.86, 8.93, 8.57, 7.9, 8.07, 7.47, 7.47, 7.27, 6.58, 6.24, 5.32, 5.7, 6.71, 8.22, 10.3, 11.28, 11.28, 12.27, 19.19, 23.19, -21.18, -13.74, -3.79, -0.0, -0.0, 1.42, 5.67, 8.85, 10.75, 11.1, 11.44, 11.9, 11.9, 11.9, 12.14, 12.14, 12.14, 12.14, 12.27, 12.27, 12.71, 13.15, 13.15, 13.01, 13.44, 13.88, 13.88, 14.31, 14.49, 14.49, 14.49, 14.6, 14.6, 15.05, 15.05, 15.13, 15.13, 14.69, 14.24, 14.29, 14.29, 13.84, 13.84, 13.4, 12.95, 12.95, 12.5, 12.5, 12.5, 12.05, 12.05, 12.05, 12.5, 12.5, 12.5, 12.5, 12.05, 12.05, 12.5, 12.5, 12.95, 12.5, 12.06, 12.06, 12.07, 11.62, 11.12, 10.94, 9.92, 9.2, 9.07, 9.2, 9.2, 9.2, 8.82, 8.27, 8.09, 8.15, 8.5, 8.59, 8.27, 8.27, 7.61, 7.87, 7.81, 7.27, 6.87, 7.15, 7.15, 7.27, 6.95, 7.74, 9.76, 11.42, 11.66, 14.22, 18.31, 22.83, 19.91, -25.83, -7.4, -0.0, 2.28, 3.88, 6.29, 9.73, 11.94, 12.29, 12.27, 12.13, 12.13, 12.13, 12.14, 12.14, 12.14, 12.27, 12.71, 12.71, 12.73, 12.83, 13.28, 13.28, 13.61, 14.03, 14.03, 14.47, 14.47, 14.49, 14.6, 14.6, 14.6, 14.6, 15.13, 15.13, 15.13, 14.69, 14.24, 14.24, 14.29, 13.84, 13.39, 13.39, 12.95, 12.5, 12.5, 12.5, 12.05, 12.05, 12.05, 12.05, 12.05, 12.05, 12.05, 12.05, 12.05, 12.05, 12.5, 12.5, 12.5, 12.5, 12.07, 12.52, 12.07, 11.61, 11.04, 10.34, 9.51, 9.2, 9.2, 9.2, 9.2, 9.2, 8.82, 8.27, 8.0, 8.15, 8.15, 8.24, 7.94, 8.3, 7.96, 8.23, 8.37, 7.59, 6.87, 6.5, 6.98, 7.27, 7.56, 8.0, 9.2, 10.43, 12.62, 14.16, 17.13, 22.6, 24.0, -26.45, -18.54, -2.72, 3.58, 6.29, 7.82, 10.17, 12.3, 13.33, 13.19, 13.19, 13.19, 13.19, 12.14, 12.14, 12.1, 12.14, 12.71, 12.71, 12.71, 13.15, 13.17, 13.17, 13.61, 13.61, 14.03, 14.47, 14.59, 14.59, 14.6, 14.6, 14.6, 15.05, 15.13, 15.12, 15.12, 14.68, 14.23, 14.23, 13.84, 13.84, 13.39, 12.95, 12.95, 12.5, 12.5, 12.05, 12.05, 12.05, 11.61, 12.05, 12.05, 11.61, 11.61, 11.61, 12.01, 12.01, 12.46, 12.5, 12.5, 12.07, 12.07, 12.52, 12.07, 11.12, 10.94, 10.12, 9.42, 9.2, 9.42, 9.42, 9.2, 9.2, 8.82, 8.43, 8.27, 8.09, 8.09, 7.87, 8.23, 8.23, 7.96, 8.58, 8.58, 8.15, 6.98, 6.5, 6.98, 7.27, 7.47, 7.21, 8.34, 11.02, 12.15, 14.05, 16.27, 20.17, 21.32, -7.77, -19.9, -5.76, 4.12, 8.05, 9.61, 11.36, 13.33, 13.78, 13.84, 13.81, 13.81, 13.81, 12.14, 12.14, 12.14, 12.14, 12.58, 12.58, 12.58, 13.01, 13.05, 13.05, 13.61, 13.61, 14.15, 14.15, 14.59, 14.15, 14.15, 14.59, 14.59, 14.59, 15.12, 15.12, 15.12, 15.12, 14.23, 13.79, 13.84, 13.84, 13.39, 12.95, 12.95, 12.5, 12.5, 12.05, 12.05, 12.01, 12.01, 12.01, 11.57, 11.57, 11.57, 11.57, 12.01, 12.01, 12.02, 12.06, 12.06, 12.07, 12.07, 12.52, 12.07, 11.04, 10.34, 9.51, 9.42, 9.51, 9.51, 9.51, 9.2, 9.2, 8.82, 8.43, 8.27, 7.9, 7.72, 7.51, 7.87, 7.87, 7.87, 8.18, 7.95, 8.15, 7.59, 6.58, 6.58, 6.69, 7.27, 7.47, 8.6, 10.4, 11.92, 13.49, 15.35, 18.6, 19.84, 17.88, -17.31, -10.2, 3.86, 10.15, 11.38, 12.35, 13.99, 15.02, 14.7, 15.27, 15.27, 15.27, 12.14, 12.14, 12.14, 12.14, 12.14, 12.58, 12.42, 12.42, 12.85, 13.01, 13.44, 13.59, 14.15, 14.15, 14.15, 14.16, 14.15, 14.15, 14.59, 14.59, 14.68, 15.12, 15.12, 14.68, 14.23, 13.79, 13.79, 13.34, 13.34, 12.9, 12.9, 12.45, 12.01, 12.01, 12.01, 12.01, 12.01, 12.01, 12.01, 11.57, 11.57, 11.57, 12.01, 12.01, 12.01, 11.57, 11.61, 11.62, 12.07, 12.07, 11.61, 10.5, 10.34, 9.7, 9.51, 9.51, 9.92, 9.92, 9.2, 9.2, 8.68, 8.68, 8.15, 8.15, 7.61, 8.0, 7.81, 7.81, 7.81, 8.18, 7.61, 8.94, 8.49, 7.9, 6.3, 7.27, 7.81, 8.23, 8.23, 9.2, 10.96, 12.98, 14.92, 17.47, 19.67, 19.59, -4.03, -12.57, 2.66, 11.27, 12.45, 14.18, 14.79, 15.58, 15.81, 15.34, 15.34, 15.34, 12.14, 12.14, 12.58, 12.58, 12.58, 12.58, 12.58, 12.58, 12.58, 13.01, 13.12, 13.69, 14.15, 14.15, 14.15, 14.15, 14.15, 14.15, 14.15, 14.59, 14.68, 14.68, 14.68, 14.68, 14.23, 13.79, 13.79, 13.34, 13.34, 12.9, 12.9, 12.45, 12.01, 12.01, 12.01, 12.01, 12.01, 12.01, 12.01, 11.57, 11.57, 11.94, 11.94, 12.01, 12.01, 11.57, 11.61, 11.61, 11.62, 11.62, 10.67, 10.47, 10.34, 9.7, 9.7, 9.92, 9.92, 9.92, 9.2, 9.2, 8.68, 8.68, 8.28, 8.15, 7.76, 7.61, 7.44, 7.81, 7.81, 7.81, 8.18, 7.95, 7.31, 8.22, 6.58, 6.58, 7.27, 7.27, 8.23, 9.2, 10.0, 12.45, 13.75, 16.46, 18.45, 18.79, 14.54, -0.0, -0.0, 10.41, 12.78, 14.57, 14.96, 15.77, 15.9, 15.55, 15.55, 15.55, 12.14, 12.14, 12.58, 12.58, 12.58, 12.58, 12.58, 12.58, 12.58, 13.01, 13.12, 13.69, 14.15, 14.15, 14.15, 14.15, 14.15, 14.15, 14.15, 14.59, 14.68, 14.68, 14.68, 14.68, 14.23, 13.79, 13.79, 13.34, 13.34, 12.9, 12.9, 12.45, 12.01, 12.01, 12.01, 12.01, 12.01, 12.01, 12.01, 11.57, 11.57, 11.94, 11.94, 12.01, 12.01, 11.57, 11.61, 11.61, 11.62, 11.62, 10.67, 10.47, 10.34, 9.7, 9.7, 9.92, 9.92, 9.92, 9.2, 9.2, 8.68, 8.68, 8.28, 8.15, 7.76, 7.61, 7.44, 7.81, 7.81, 7.81, 8.18, 7.95, 7.31, 8.22, 6.58, 6.58, 7.27, 7.27, 8.23, 9.2, 10.0, 11.5, 13.07, 14.58, 16.31, 17.23, 16.73, 12.88, 7.47, 9.89, 12.64, 13.61, 15.74, 15.99, 15.44, 15.43, 15.43, 15.43]}, {"header": {"dx": 0.06612293990616946, "dy": 0.0552356325346848, "nx": 98, "ny": 59, "la1": 35.046912555036876, "la2": 31.78801023549047, "lo1": -121.43107172385933, "lo2": -114.95102361305473, "refTime": "2026041310", "parameterCategory": 1, "parameterNumber": 3}, "data": [-4.4, -4.4, -5.18, -5.18, -5.18, -5.18, -5.48, -6.24, -5.81, -6.18, -6.2, -5.98, -8.85, -10.6, -10.28, -10.73, -10.73, -10.73, 0.0, 0.0, 0.0, 0.0, 0.0, -2.19, -1.91, 0.0, 3.82, 7.51, 6.7, 5.4, 0.0, -0.0, -0.0, -0.0, -0.0, 4.2, 7.27, 0.0, 0.0, -5.69, -6.01, -9.83, -11.62, -12.96, -10.12, -8.68, -9.67, -4.55, 0.0, 5.09, 9.39, 11.06, 11.06, 10.02, 11.06, 8.83, 9.09, 9.09, 7.32, 8.18, 6.4, 7.36, 7.13, 7.78, 7.78, 8.38, 8.43, 8.53, 7.2, 6.19, 5.62, 6.02, 5.98, 5.37, 3.78, 1.69, 0.0, -5.98, -13.39, -14.3, -10.79, -10.84, -10.52, -11.84, -13.23, -14.3, -13.86, -13.01, -12.39, -9.8, -9.02, -8.51, -8.51, -7.1, 0.0, 10.43, 11.44, 9.48, -5.02, -5.18, -4.91, -4.91, -4.91, -5.18, -5.34, -6.43, -6.6, -6.6, -5.62, -5.27, -5.2, -6.44, -9.67, -10.6, -9.2, 0.0, 0.0, 0.0, 0.0, 0.0, 0.0, 0.0, -1.84, 0.0, 4.15, 8.22, 6.45, 3.82, 0.0, 0.0, 0.0, -0.0, -0.0, -0.0, -0.0, 0.0, -6.01, -6.32, -6.95, -8.22, -9.17, -7.93, -5.23, 0.0, 0.0, 0.0, 9.42, 12.16, 11.87, 11.87, 10.75, 9.6, 9.6, 8.83, 8.83, 8.06, 7.32, 5.81, 6.4, 5.15, 5.8, 5.8, 7.78, 7.59, 8.68, 7.76, 6.35, 5.09, 4.86, 5.09, 4.62, 1.78, 1.88, 1.65, 1.78, -5.98, -13.39, -14.3, -10.79, -10.84, -10.52, -11.84, -13.23, -14.3, -13.86, -13.01, -12.39, -9.8, -9.02, -8.51, -8.51, -7.1, 0.0, 10.43, 11.44, 9.48, -5.02, -4.91, -4.91, -4.91, -4.91, -4.91, -6.09, -6.09, -6.43, -6.4, -5.6, -4.87, -5.2, -5.2, -5.52, -4.8, -3.53, 0.0, 0.0, 0.0, 0.0, 0.0, 0.0, 0.0, 0.0, 2.28, 5.0, 5.95, 4.6, 0.0, 0.0, 0.0, 4.38, 0.0, 0.0, 0.0, -7.2, -8.94, -9.39, -9.2, -9.67, -7.69, -3.9, 0.0, 0.0, 0.0, 4.88, 10.17, 11.44, 11.52, 10.75, 11.33, 9.44, 10.43, 10.12, 9.73, 8.83, 8.06, 7.82, 6.6, 6.4, 4.98, 5.8, 8.05, 8.85, 10.75, 8.68, 7.0, 6.54, 5.5, 4.86, 3.82, 1.56, 0.0, 0.0, 0.0, 0.0, -2.57, -13.57, -11.53, -8.85, -10.4, -10.38, -12.04, -12.89, -13.75, -13.23, -13.86, -12.87, -9.8, -9.27, -9.42, -8.05, 6.2, 12.39, 11.09, 9.48, 9.48, -4.76, -4.76, -4.91, -4.91, -4.66, -4.91, -5.79, -6.09, -6.94, -6.88, -5.99, -5.32, -4.9, -5.0, -5.0, -4.15, -2.82, 0.0, 0.0, 0.0, 0.0, 0.0, 0.0, 0.0, 1.98, 3.36, 5.2, 0.0, 0.0, 0.0, 0.0, 6.94, 9.48, 6.2, 5.4, 0.0, -9.83, -11.18, -11.62, -12.72, -5.09, 0.0, 0.0, 3.59, 2.87, 3.24, 5.64, 9.8, 11.17, 11.17, 10.65, 10.12, 9.8, 10.12, 10.12, 9.31, 7.82, 7.82, 7.16, 5.81, 4.87, 4.1, 8.31, 10.75, 11.87, 10.75, 10.02, 8.68, 7.71, 6.56, 6.1, 5.13, 1.69, -2.09, -9.77, -8.68, -2.81, 0.0, -14.84, -9.48, -8.22, -9.66, -10.4, -13.28, -12.65, -11.8, -14.31, -14.3, -12.39, -10.82, -10.3, -4.66, 12.72, 13.15, 13.15, 12.45, 9.48, 8.38, -4.76, -4.76, -4.91, -4.66, -4.66, -4.66, -5.51, -5.79, -6.94, -6.88, -5.99, -5.62, -5.64, -4.4, -3.39, -2.28, -2.82, 0.0, 0.0, 0.0, 0.0, 0.0, -3.39, -2.82, 0.0, 0.0, 0.0, 0.0, 0.0, -6.95, 0.0, 9.2, 9.67, 5.98, 1.91, 0.0, 0.0, -5.8, -14.84, -12.96, 8.6, 9.67, 9.12, 7.13, 6.2, 7.13, 8.66, 8.66, 9.8, 9.8, 9.48, 9.48, 10.3, 10.65, 10.12, 9.31, 7.58, 6.95, 6.4, 5.15, 4.55, 6.9, 12.16, 13.42, 12.02, 10.18, 10.18, 9.66, 9.49, 9.17, 8.43, 8.13, 7.75, 4.55, -5.48, -8.87, -6.0, -2.45, -0.0, -9.8, -8.22, -9.42, -11.88, -10.75, -10.43, -11.87, -14.99, -14.31, -11.88, -12.52, -6.8, 13.86, 12.96, 12.96, 12.71, 11.5, 8.38, 6.9, -4.76, -4.76, -4.76, -4.66, -4.66, -5.35, -5.51, -5.62, -6.6, -6.52, -5.99, -5.39, -5.43, -4.23, -4.15, -2.71, -2.82, 0.0, -5.4, -5.6, -5.6, -2.93, -3.25, -3.14, -3.82, -3.82, 0.0, 0.0, 0.0, 0.0, 4.2, 6.64, 4.4, 0.0, 0.0, 0.0, 0.0, -3.36, -12.33, 0.0, 16.09, 13.88, 11.16, 10.12, 10.12, 10.75, 10.75, 10.43, 9.8, 9.48, 9.17, 10.3, 10.65, 9.8, 9.16, 7.58, 6.4, 5.81, 5.31, 4.98, 6.43, 10.12, 14.53, 14.38, 13.23, 11.7, 9.61, 8.43, 8.28, 8.33, 8.21, 7.99, 9.43, 8.9, 5.4, 0.0, -5.8, -12.52, -0.0, -6.21, -8.01, -11.33, -13.39, -12.57, -12.37, -14.42, -15.2, -13.7, -13.99, -15.2, 14.3, 13.86, 13.15, 12.96, 13.15, 9.48, 6.9, 4.98, -4.76, -5.45, -5.45, -5.35, -5.35, -5.35, -5.35, -5.35, -5.73, -6.52, -5.99, -4.4, -4.36, -4.23, -4.48, -2.71, -2.93, -3.96, -3.96, 0.0, 0.0, 0.0, 0.0, 0.0, 0.0, 0.0, 0.0, 0.0, 0.0, 4.8, 4.8, 4.2, 0.0, 0.0, -1.64, 0.0, 0.0, 0.0, 0.0, 13.41, 12.79, 12.96, 12.39, 11.44, 10.75, 10.43, 11.38, 11.06, 9.8, 9.8, 9.8, 9.48, 8.87, 7.69, 5.46, 4.87, 4.87, 2.91, 2.91, 4.1, 8.1, 13.28, 14.53, 13.39, 12.56, 10.15, 7.71, 6.8, 4.37, 4.12, 4.73, 5.46, 6.34, 6.69, 6.53, 4.47, 0.0, 12.52, 2.93, -3.36, -11.52, -13.97, -14.4, -14.03, -14.3, -14.51, -14.75, -15.65, -11.06, 12.39, 13.41, 13.86, 14.3, 13.86, 12.45, 7.78, 4.24, 4.24, -4.61, -5.45, -5.45, -5.18, -5.35, -5.35, -5.35, -5.35, -5.45, -5.67, -4.73, -4.4, -4.6, -4.4, -4.65, -4.15, -3.82, -4.1, -4.1, 0.0, 0.0, 0.0, 0.0, -7.0, 0.0, 0.0, -4.95, -7.2, 0.0, 0.0, 0.0, 0.0, 0.0, -3.04, -2.19, -2.45, -3.14, 0.0, 0.0, 8.22, 12.96, 13.86, 14.39, 14.13, 12.87, 11.52, 11.1, 11.06, 10.43, 10.43, 9.17, 8.38, 6.2, 3.81, 3.81, 1.66, 1.61, 1.61, 1.55, 3.96, 9.17, 13.88, 14.11, 11.38, 7.98, 6.72, 5.5, 2.57, 0.0, -1.47, 0.0, 0.0, 0.0, 0.0, 0.0, 0.0, 1.63, 6.2, 12.96, -0.0, -14.13, -14.13, -14.4, -13.65, -13.59, -13.15, -11.44, -4.66, 6.2, 12.72, 12.96, 12.96, 13.86, 13.86, 11.5, 6.0, 4.24, 4.38, -4.61, -4.76, -5.45, -5.18, -5.35, -5.35, -5.35, -5.35, -5.45, -5.2, -4.92, -5.77, -5.11, -5.11, -5.6, -5.6, -7.19, -7.44, -4.24, -4.24, 0.0, 0.0, -9.8, -14.3, -9.17, -7.9, -6.95, -12.39, -11.06, -4.52, -7.69, -10.75, -6.8, 0.0, 0.0, 0.0, 0.0, 0.0, 0.0, 7.59, 12.96, 14.75, 14.75, 11.87, 11.16, 10.12, 11.52, 10.75, 10.01, 9.89, 9.49, 4.81, 2.72, 0.0, 0.0, 0.0, 0.0, 0.0, 0.0, 7.44, 13.15, 13.88, 11.8, 7.0, 1.94, 1.78, 1.5, 0.0, -2.8, -5.48, -5.99, -5.48, -4.0, -3.58, -3.76, -2.02, 0.0, 0.0, 3.79, 0.0, -18.33, -15.59, -16.19, -14.79, -12.65, -9.8, -4.24, -0.0, 8.85, 12.14, 12.52, 12.96, 13.41, 14.55, 10.43, 5.63, 3.81, 2.28, -4.61, -4.38, -4.52, -5.18, -5.35, -5.35, -5.35, -5.35, -5.18, -5.2, -5.29, -6.1, -5.4, -5.62, -5.46, -6.9, -6.4, -8.85, -10.43, -9.48, -9.17, -9.17, -12.39, -14.3, -13.57, -9.67, -8.4, -10.18, -13.99, -11.44, -10.43, -11.7, -11.06, 0.0, 0.0, 0.0, 0.0, 0.0, 5.2, 11.6, 11.6, 12.3, 10.4, 10.4, 8.22, 8.53, 7.82, 8.3, 8.58, 9.12, 8.57, 7.1, 4.38, 2.63, 0.0, 0.0, -2.28, -2.82, 0.0, 9.48, 13.57, 13.59, 7.2, 2.21, 0.0, 0.0, 0.0, 0.0, -5.31, -9.02, -9.02, -8.05, -6.95, -5.99, -3.93, 0.0, 0.0, -6.8, -5.09, -7.6, 0.0, 0.0, -15.99, -5.37, 0.0, 4.38, 0.0, 0.0, 10.8, 11.71, 11.91, 12.96, 13.86, 13.7, 8.43, 4.66, 1.96, 2.72, -3.71, -4.38, -4.52, -4.66, -5.35, -5.35, -5.35, -4.66, -4.52, -5.11, -5.2, -5.86, -6.52, -5.86, -5.81, -7.1, -7.0, -8.68, -8.05, -10.43, -12.33, -12.33, -14.13, -13.99, -14.31, -12.3, -9.75, -9.75, -12.04, -11.09, -7.19, -4.1, 0.0, 0.0, -5.0, -2.93, 0.0, 0.0, 8.53, 11.53, 11.9, 11.99, 8.22, 8.22, 7.9, 5.95, 6.71, 5.75, 5.4, 6.43, 10.43, 12.11, 12.11, 10.75, 8.18, 6.8, 4.81, -13.41, -8.53, 9.8, 15.69, 12.01, 5.09, 2.28, 6.52, 9.92, 10.25, 9.42, 0.0, -12.96, -12.39, -9.96, -7.1, -6.4, 0.0, 13.86, 10.12, 0.0, -16.99, -17.88, 0.0, 5.51, 8.8, 3.16, 7.59, 6.9, 4.65, 0.0, 10.4, 11.18, 11.84, 13.41, 13.67, 12.27, 7.32, 4.11, 2.02, 0.0, -3.71, -4.38, -4.52, -4.66, -4.66, -4.66, -4.66, -4.66, -4.52, -5.11, -5.11, -5.55, -6.6, -6.4, -5.67, -5.93, -5.6, -6.6, -7.2, -8.56, -8.88, -9.23, -8.68, -9.66, -9.48, -9.17, -8.85, -6.11, -8.94, -7.27, -3.39, 0.0, 0.0, 0.0, -5.95, -3.82, 0.0, 3.82, 8.85, 11.16, 11.53, 11.16, 10.04, 7.9, 7.27, 6.64, 6.2, 6.45, 6.7, 8.53, 11.37, 13.8, 15.06, 15.83, 15.45, 15.84, 15.99, 10.75, -5.8, -0.0, 17.1, 12.96, 5.23, 9.77, 15.36, 18.42, 20.22, 19.48, 17.09, 17.88, -13.99, -14.3, -9.17, 0.0, 12.96, 13.15, 13.99, 11.7, 0.0, 0.0, 17.43, 12.01, 10.73, 9.89, 9.44, 8.44, 4.72, 2.82, 4.15, 10.4, 12.07, 12.52, 12.71, 8.05, 3.81, 1.58, 0.0, 0.0, -4.38, -4.38, -4.31, -4.44, -4.44, -4.66, -4.66, -4.52, -5.18, -5.02, -5.28, -5.73, -5.91, -6.8, -7.0, -7.15, -6.4, -6.0, -5.43, -5.62, -5.62, -6.76, -6.0, -5.55, -4.98, -4.98, -4.98, -6.0, -4.99, -3.36, -1.52, 0.0, 0.0, 0.0, -2.49, -2.39, 0.0, 3.53, 8.22, 10.8, 11.2, 8.85, 8.53, 4.6, 6.95, 6.95, 7.59, 10.04, 10.04, 10.4, 10.68, 11.2, 12.66, 14.53, 15.61, 15.59, 16.02, 14.13, 7.51, 11.6, 16.09, 13.26, 12.52, 14.22, 16.95, 18.08, 21.41, 24.58, 23.28, 21.99, 19.72, -0.0, -10.75, 12.52, 13.41, 16.54, 17.43, 15.99, 12.01, 7.4, 6.8, 4.81, 2.89, 2.98, 10.66, 9.0, 4.11, 3.29, 3.92, 7.9, 11.03, 11.62, 11.71, 6.0, 0.0, 0.0, 0.0, 0.0, -4.38, -4.38, -4.17, -4.31, -4.44, -4.52, -4.52, -4.52, -4.52, -4.52, -4.76, -5.45, -5.62, -5.79, -6.13, -7.2, -7.57, -6.43, -6.6, -5.63, -5.63, -5.63, -5.81, -6.16, -5.62, -5.62, -5.14, -4.21, -3.81, -2.72, -2.44, -1.44, -1.98, -2.6, -3.25, -3.11, 0.0, 0.0, 4.6, 0.0, 0.0, 0.0, 0.0, 0.0, 0.0, 0.0, 8.8, 10.0, 10.6, 11.03, 9.3, 9.67, 11.99, 13.86, 9.17, 10.04, 11.8, 10.73, 7.38, 10.35, 13.86, 14.47, 14.75, 15.11, 15.2, 15.49, 17.19, 19.34, 21.17, 21.06, 18.58, 12.45, -0.0, -0.0, 10.75, 16.54, 14.66, 12.96, 9.92, 7.8, 3.07, 0.0, 0.0, 0.0, 5.09, 3.88, 2.35, 3.98, 4.72, 6.76, 8.59, 11.28, 11.2, 0.0, 0.0, 0.0, 6.2, 10.12, -4.38, -4.38, -4.38, -4.52, -4.52, -4.52, -4.52, -4.52, -4.52, -4.52, -4.76, -4.91, -4.91, -5.79, -6.13, -6.3, -6.63, -6.99, -6.81, -6.62, -6.43, -5.64, -5.81, -5.09, -5.09, -5.23, -5.09, -4.95, -4.81, -3.58, -3.36, -2.45, -3.32, -2.1, -2.49, -3.11, 0.0, 0.0, 0.0, 0.0, 0.0, 0.0, 0.0, 0.0, 0.0, 0.0, 0.0, 7.27, 7.59, 7.59, 4.8, 4.6, 0.0, -8.49, -6.32, -6.64, -10.28, 0.0, 4.42, 10.12, 11.61, 12.07, 12.14, 12.72, 13.86, 13.88, 15.07, 15.2, 15.19, 15.71, 15.8, 14.73, 7.59, -9.8, -11.38, 16.54, 14.08, 11.77, 9.92, 7.8, 6.31, 3.01, 1.55, 0.0, -2.93, 0.0, 2.72, 4.24, 5.27, 8.3, 8.85, 10.04, 9.17, 5.8, 9.48, 11.53, 12.79, 12.79, -4.38, -4.38, -4.38, -5.18, -4.52, -4.52, -4.52, -4.52, -4.52, -4.52, -4.66, -4.91, -4.91, -4.81, -4.95, -5.36, -5.5, -5.96, -6.81, -6.63, -6.81, -5.98, -5.09, -4.93, -5.23, -4.93, -4.93, -5.65, -4.67, -4.53, -3.69, -3.69, -3.81, -3.19, -2.02, -2.83, 0.0, 0.0, 0.0, 0.0, 0.0, 0.0, 0.0, 0.0, 0.0, 0.0, 0.0, 0.0, 0.0, 0.0, 0.0, 4.6, 0.0, 0.0, -7.6, -8.06, -8.94, -6.97, 0.0, 6.67, 10.4, 11.02, 9.09, 9.7, 11.02, 11.91, 12.22, 12.74, 13.76, 11.8, 9.0, 11.04, 8.4, 0.0, 16.99, 17.39, 15.38, 11.32, 8.9, 7.84, 7.6, 5.78, 3.88, 2.54, 0.0, 0.0, 0.0, 5.15, 8.58, 10.12, 9.8, 11.2, 11.16, 11.5, 11.6, 12.72, 13.15, 13.15, -4.38, -4.38, -4.52, -4.38, -4.38, -4.52, -4.52, -4.66, -4.52, -4.52, -4.91, -4.91, -4.81, -4.81, -4.95, -5.21, -4.41, -5.5, -5.65, -5.65, -5.81, -5.65, -4.8, -4.8, -4.8, -4.54, -5.36, -5.65, -5.65, -5.81, -5.07, -4.79, -4.15, -3.47, -2.83, -1.75, -1.84, 0.0, 0.0, 0.0, 0.0, 0.0, 0.0, 0.0, 0.0, 0.0, 4.6, 4.6, 4.6, 0.0, 0.0, 0.0, 2.97, 0.0, -6.64, -8.91, -8.8, -6.17, -2.19, 2.37, 9.66, 10.28, 7.68, 5.06, 8.18, 9.26, 11.18, 11.87, 12.37, 13.91, 13.4, 8.8, 5.94, 4.12, 12.33, 16.34, 14.53, 11.1, 9.71, 7.6, 7.2, 6.27, 5.3, 5.46, 12.3, 8.85, 0.0, 13.57, 13.19, 10.43, 7.44, 10.41, 12.58, 12.87, 12.87, 12.3, 12.72, 12.72, -4.38, -4.38, -4.52, -4.52, -4.38, -4.38, -4.52, -4.52, -4.66, -4.91, -4.91, -5.06, -4.81, -4.81, -5.06, -5.06, -4.41, -5.36, -5.5, -4.67, -4.8, -4.8, -4.67, -4.53, -4.67, -4.54, -4.67, -5.5, -5.81, -6.12, -4.92, -5.05, -5.33, -3.9, -3.44, -2.39, -2.58, -2.02, 0.0, 0.0, 0.0, 0.0, 0.0, 0.0, 0.0, 0.0, 0.0, 3.25, 3.11, 0.0, 0.0, 0.0, 0.0, 0.0, 0.0, -2.39, -2.39, -2.02, 0.0, 2.28, 6.71, 10.52, 9.55, 6.95, 5.21, 8.05, 9.89, 11.62, 9.67, 11.06, 12.8, 8.24, 5.68, 6.01, 10.76, 13.82, 11.17, 8.99, 8.4, 7.04, 6.27, 5.81, 5.41, 9.8, 13.41, 11.6, 13.41, 13.86, 14.75, 13.99, 11.06, 13.15, 12.96, 13.86, 13.59, 13.67, 12.46, 12.46, -4.38, -4.38, -4.38, -4.52, -4.38, -4.38, -4.52, -4.52, -4.91, -4.91, -4.91, -5.06, -5.21, -4.95, -5.06, -5.37, -5.18, -5.21, -4.41, -3.69, -3.79, -4.54, -4.67, -4.35, -4.37, -4.54, -4.66, -6.31, -5.01, -5.09, -5.2, -5.05, -5.05, -4.92, -3.79, -3.23, -2.65, -2.7, -2.13, 0.0, 0.0, 0.0, 0.0, 0.0, 0.0, 0.0, 0.0, 0.0, 0.0, 0.0, 0.0, 0.0, 0.0, 0.0, 0.0, 0.0, 0.0, 0.0, 0.0, 1.91, 6.71, 10.41, 10.28, 8.77, 8.72, 8.55, 9.45, 10.73, 8.03, 5.8, 7.2, 5.8, 5.69, 5.93, 5.27, 0.0, 0.0, 1.18, 3.03, 5.05, 3.16, 3.72, 3.59, 2.63, 9.8, 0.0, 0.0, 0.0, 15.2, 10.75, 11.7, 13.02, 13.86, 13.15, 14.75, 13.59, 13.15, 13.15, -4.38, -4.38, -4.38, -4.38, -4.38, -4.38, -4.52, -4.52, -4.91, -4.91, -5.62, -5.79, -5.96, -5.21, -5.21, -5.06, -4.91, -5.18, -4.12, -4.81, -4.88, -5.09, -5.98, -6.47, -6.72, -5.81, -5.23, -5.41, -5.37, -5.07, -6.12, -5.2, -4.92, -4.92, -3.89, -3.48, -3.14, -2.82, -2.02, -1.45, -0.8, -0.86, -0.82, 0.0, 0.0, 0.0, 0.0, 0.0, 0.0, 0.0, 0.0, 0.0, 0.0, 0.0, 0.0, 0.0, 0.0, 0.0, 1.52, 3.68, 6.17, 9.75, 9.83, 9.83, 8.91, 8.18, 9.2, 10.73, 6.97, 1.83, 1.51, 2.25, 2.39, 1.29, 0.0, -7.6, -11.38, -9.88, -1.11, 0.0, 1.01, 2.52, 1.97, 0.0, -9.17, -12.96, -13.86, 0.0, 0.0, 0.0, 0.0, 11.38, 14.75, 12.79, 14.3, 14.47, 14.03, 14.03, -4.38, -4.38, -4.38, -4.38, -4.38, -4.38, -4.38, -4.52, -4.66, -5.06, -5.62, -5.79, -5.96, -5.96, -5.21, -5.21, -4.91, -4.91, -4.55, -5.64, -5.37, -5.56, -5.23, -5.65, -5.96, -5.96, -5.09, -5.07, -5.2, -5.05, -5.05, -4.92, -4.92, -4.23, -4.12, -2.87, -2.56, -2.39, -2.14, -2.1, -1.48, -0.77, -0.8, -0.76, 0.0, 0.0, 0.0, 0.0, 0.0, 0.0, 0.0, 0.0, 0.0, 0.0, 0.0, 0.0, 0.0, 1.28, 1.52, 1.69, 4.6, 9.33, 9.83, 10.28, 9.46, 10.18, 11.21, 11.62, 8.85, 4.1, 3.58, 5.13, 3.95, 0.0, -7.4, -13.05, -15.19, -13.92, -10.6, -4.62, 0.0, 3.72, 8.14, 8.8, 4.12, 0.0, 6.6, 8.43, 4.81, 0.0, 0.0, 13.59, 15.65, 11.44, 13.44, 14.3, 14.03, 14.03, -5.02, -4.38, -4.38, -4.38, -4.38, -4.38, -4.38, -4.52, -4.66, -4.81, -5.51, -5.79, -5.79, -5.96, -5.96, -5.96, -5.79, -5.62, -5.62, -5.5, -5.96, -4.93, -5.65, -5.36, -5.65, -5.65, -5.8, -5.5, -4.67, -4.79, -4.92, -3.99, -3.99, -3.99, -3.89, -2.95, -2.72, -1.62, -1.46, -1.39, -1.44, -0.77, -0.77, 0.0, 0.0, 0.0, 0.0, 0.0, 0.0, 0.0, 0.0, 0.0, 0.0, 0.0, 0.0, 0.0, 1.76, 2.71, 1.33, 0.0, 2.17, 10.08, 10.28, 10.28, 10.62, 11.91, 11.62, 11.62, 11.03, 12.72, 12.81, 15.04, 12.81, 11.16, -12.07, -14.19, -17.35, -17.39, -15.59, -11.06, 0.0, 7.6, 11.61, 12.88, 12.17, 9.39, 9.44, 8.93, 4.95, -10.12, 0.0, 14.75, 15.2, 12.27, 11.53, 13.86, 13.88, 13.88, -5.02, -5.02, -5.02, -4.38, -4.38, -4.38, -4.52, -4.52, -4.66, -4.81, -4.81, -4.81, -5.96, -5.96, -5.96, -6.66, -5.79, -5.62, -5.79, -6.3, -5.65, -5.36, -5.06, -5.06, -4.43, -4.67, -4.79, -4.67, -4.55, -4.31, -3.59, -3.59, -3.59, -3.59, -2.87, -2.87, -2.8, -1.72, -0.76, -0.68, -0.68, -0.72, 0.0, 0.0, 0.0, 0.0, 0.0, 0.0, 0.0, 0.0, 0.0, 0.0, 0.0, 0.0, 0.0, 0.0, 2.19, 2.52, 0.0, 0.0, 6.64, 10.28, 11.18, 11.18, 11.46, 12.27, 12.96, 11.18, 11.06, 11.62, 13.15, 14.82, 14.31, -5.37, -2.71, -12.14, -14.3, -16.46, -17.35, -17.3, -10.75, 5.81, 8.68, 9.73, 10.19, 9.47, 8.18, 7.38, 5.98, 4.95, -9.8, -0.0, 10.12, 10.12, 9.48, 13.41, 12.58, 12.58, -5.02, -5.02, -4.38, -4.38, -5.02, -5.02, -5.02, -5.18, -4.66, -4.81, -4.81, -4.95, -5.67, -5.67, -5.67, -6.66, -6.66, -5.62, -5.96, -6.13, -5.5, -5.65, -5.36, -4.16, -4.07, -3.59, -3.78, -3.78, -3.78, -3.69, -3.32, -3.32, -3.32, -2.51, -2.65, -2.65, -2.65, -1.78, -1.48, -0.64, 0.0, 0.0, 0.0, 0.0, 0.0, 0.0, 0.0, 0.0, 0.0, 0.0, 0.0, 0.0, 0.0, 0.0, 0.0, 0.0, 0.0, 1.23, 1.39, 0.0, 8.49, 8.82, 11.18, 12.07, 12.07, 13.59, 12.58, 12.96, 10.41, 10.2, 9.2, 7.18, 9.5, 10.0, -0.0, -7.6, -16.09, -13.86, -14.75, -15.55, -16.09, -4.52, 2.43, 3.39, 3.39, 3.3, 3.2, 3.69, 7.0, 8.93, 0.0, -7.44, -5.8, -0.0, -0.0, 12.96, 12.52, 12.52, -4.38, -4.38, -4.61, -4.38, -4.38, -5.02, -5.28, -5.45, -5.35, -5.51, -4.81, -4.81, -5.67, -5.67, -5.67, -5.67, -5.96, -6.09, -5.79, -6.13, -5.36, -5.65, -4.79, -4.67, -3.39, -3.39, -2.65, -2.72, -2.72, -2.65, -2.65, -2.58, -2.44, -2.44, -2.51, -2.51, -1.78, -1.73, -1.58, -0.67, 0.0, 0.0, 0.0, 0.0, 0.0, 0.0, 0.0, 0.0, 0.0, 0.0, -0.7, 0.0, 0.0, 0.0, 0.0, 0.0, 0.0, 0.0, 2.49, 5.46, 9.54, 8.49, 10.28, 11.62, 11.21, 12.87, 12.39, 12.52, 11.62, 5.29, 2.19, 3.52, 8.42, 11.4, 8.3, -14.54, -13.59, -16.99, -14.75, -11.91, -14.55, -14.9, -9.12, -4.81, -2.15, 0.0, 2.02, 4.52, 9.22, 11.36, 11.38, 4.38, -10.79, -4.24, -0.0, 12.14, 11.84, 11.84, -4.38, -4.38, -4.61, -4.38, -5.02, -5.02, -5.28, -5.45, -5.62, -5.35, -5.51, -5.51, -5.67, -5.67, -4.95, -4.95, -5.96, -5.96, -5.96, -5.96, -5.21, -5.36, -4.79, -4.79, -3.59, -3.49, -2.51, -2.65, -2.72, -1.83, -1.69, -0.85, -0.83, -1.65, -1.6, -1.68, -1.68, -1.68, -0.82, -0.7, -0.59, 0.0, 0.0, 0.0, 0.66, 0.66, 0.0, 0.0, 0.0, 0.0, -0.6, -0.64, 0.0, 0.0, 0.0, 0.0, 0.0, 0.0, 2.58, 7.27, 8.55, 9.55, 9.21, 9.96, 9.97, 12.04, 12.07, 12.52, 9.32, 5.1, 4.36, 4.87, 7.12, 10.42, 12.81, 8.3, -18.79, -17.81, -16.09, -12.27, -13.28, -15.2, -14.42, -11.44, -2.89, 3.07, 8.18, 10.12, 10.52, 11.35, 11.25, 10.31, 2.72, -10.79, -0.0, 11.71, 11.62, 11.62, -4.38, -4.38, -4.38, -5.02, -5.02, -5.02, -5.28, -5.28, -5.45, -5.35, -5.51, -5.51, -4.95, -4.81, -4.95, -4.95, -4.95, -5.96, -5.96, -5.21, -5.21, -4.41, -4.54, -4.67, -3.59, -3.59, -3.32, -2.58, -1.78, -1.78, -0.85, -0.85, 0.0, 0.0, 0.0, 0.0, 0.0, 0.0, 0.0, 0.0, 0.0, 0.0, 0.0, 0.0, 0.66, 0.63, 0.0, 0.0, 0.0, 0.0, 0.0, -0.6, -0.64, -0.65, -0.98, 0.0, 0.0, 0.0, 2.83, 5.82, 8.24, 7.47, 9.58, 9.2, 11.45, 10.65, 11.62, 10.6, 9.67, 7.85, 5.86, 4.99, 5.14, 7.37, 9.99, 12.37, 4.21, -17.99, -15.61, -12.96, -12.52, -14.75, -14.3, -11.99, 6.4, 11.87, 13.39, 12.45, 11.52, 10.94, 9.8, 8.43, 9.34, 2.28, -9.17, 8.53, 11.4, 11.4, -5.02, -5.02, -5.02, -5.02, -5.02, -4.61, -4.61, -4.61, -5.45, -5.45, -5.35, -4.81, -4.81, -4.81, -4.81, -4.58, -4.95, -4.95, -5.21, -5.21, -5.21, -4.41, -4.19, -3.39, -3.49, -3.49, -2.51, -1.68, -1.65, -0.83, -0.83, 0.0, 0.0, 0.0, 0.0, 0.0, 0.0, 0.0, 0.0, 0.0, 0.0, 0.0, 0.0, 0.0, 0.0, 0.0, 0.0, 0.0, 0.0, 0.0, 0.0, 0.0, -0.63, -0.6, -0.63, -0.89, 0.0, 1.11, 3.8, 5.82, 7.4, 7.74, 8.23, 10.0, 10.46, 11.91, 10.96, 9.75, 7.59, 6.94, 5.63, 3.41, 2.06, 2.2, 3.62, 6.05, 7.13, 0.0, -20.82, -17.88, -13.86, 0.0, 6.8, 9.8, 10.82, 12.13, 13.03, 12.82, 11.63, 10.12, 8.51, 6.6, 9.48, 6.87, 3.81, 9.17, 12.14, 12.14, -5.28, -5.28, -5.28, -5.28, -4.61, -4.61, -4.61, -4.76, -4.76, -4.76, -4.91, -4.81, -4.95, -4.19, -3.98, -4.58, -4.58, -4.81, -4.29, -4.29, -4.41, -4.19, -3.39, -3.39, -3.22, -2.44, -1.56, -1.6, -0.83, -0.83, 0.0, 0.0, 0.0, 0.0, 0.0, 0.0, 0.0, 0.0, 0.0, 0.0, 0.0, 0.0, 0.0, 0.0, 0.0, 0.64, 0.0, 0.0, 0.0, 0.0, 0.0, 0.0, -0.63, -0.6, -0.6, -0.63, 0.0, 2.23, 4.2, 6.18, 7.02, 7.4, 8.34, 10.21, 10.0, 11.61, 11.03, 8.55, 0.0, 0.0, 1.43, 2.48, 2.13, 0.0, -4.89, -3.24, 1.78, 3.67, 0.0, -19.59, 0.0, 8.18, 8.72, 9.34, 10.75, 10.86, 11.44, 10.75, 8.97, 7.28, 6.85, 5.3, 4.66, 7.13, 5.9, 5.46, 12.96, 12.96, -5.9, -5.9, -5.28, -5.28, -4.61, -4.87, -4.61, -4.76, -4.76, -4.76, -4.76, -5.06, -4.81, -4.19, -4.1, -3.98, -3.87, -4.07, -4.07, -4.07, -3.39, -3.39, -3.22, -2.44, -2.44, -2.44, -1.51, -1.56, -0.8, -0.8, -0.8, 0.0, 0.0, 0.0, 0.0, 0.0, 0.0, 0.0, 0.0, 0.0, 0.0, 0.0, 0.0, 0.0, 0.0, 0.0, 0.0, 0.0, 0.0, 0.0, 0.0, 0.0, -0.66, -0.63, -0.6, 0.0, 0.56, 2.84, 4.8, 5.64, 6.32, 7.06, 8.99, 9.2, 9.2, 10.32, 10.6, 10.35, 2.28, 0.0, 1.84, 6.08, 6.56, 4.54, -5.81, -13.36, -7.8, 0.0, 1.17, 0.0, 0.0, 7.57, 8.97, 9.42, 10.19, 10.19, 8.29, 5.64, 5.19, 4.47, 4.21, 4.05, 3.95, 5.46, 6.34, 6.24, 8.66, 8.66, -5.11, -5.11, -5.28, -5.55, -5.28, -5.55, -5.55, -4.76, -4.76, -4.91, -4.91, -4.76, -4.81, -4.81, -3.98, -3.98, -3.98, -3.39, -3.39, -3.39, -3.39, -3.22, -2.44, -2.44, -2.44, -2.44, -1.51, -1.47, -0.76, -0.78, -0.8, -0.78, 0.0, 0.0, 0.0, 0.0, 0.0, 0.0, 0.0, 0.0, 0.0, 0.0, 0.0, 0.0, 0.0, 0.0, 0.0, 0.0, 0.0, 0.0, 0.0, 0.0, 0.0, -0.62, -0.62, 0.0, 1.74, 3.5, 5.2, 6.31, 6.24, 7.41, 8.72, 8.03, 8.72, 9.39, 9.54, 9.67, 7.9, 7.27, 7.87, 8.49, 8.18, 9.37, 3.95, -15.91, -17.56, -9.12, -2.5, 0.0, 0.0, 5.1, 10.17, 8.68, 9.2, 7.92, 6.59, 3.9, 2.43, 2.35, 2.11, 2.02, 2.81, 4.4, 5.25, 7.15, 9.42, 9.42, -5.11, -5.11, -5.11, -6.2, -5.55, -5.55, -4.87, -4.76, -4.76, -4.91, -4.91, -4.91, -4.66, -4.95, -4.19, -3.98, -3.22, -3.32, -3.49, -3.32, -3.32, -3.32, -3.22, -3.22, -2.44, -2.44, -1.59, -1.5, -1.15, -0.82, -0.82, -0.8, 0.0, 0.0, 0.0, 0.0, 0.0, 0.0, 0.0, 0.0, 0.0, 0.0, 0.0, 0.0, 0.0, 0.0, 0.0, 0.0, 0.0, 0.0, 0.0, 0.0, 0.0, 0.0, 0.59, 1.17, 2.3, 3.5, 5.2, 6.97, 7.59, 7.06, 6.87, 6.98, 7.15, 8.49, 9.39, 9.55, 8.93, 7.15, 8.0, 7.27, 7.28, 7.68, 8.35, -9.8, -15.69, -13.41, -9.22, -2.0, 0.0, 13.28, 15.59, 8.74, 6.42, 5.65, 4.61, 2.87, 1.26, 0.0, 1.29, 2.91, 3.98, 5.92, 6.24, 7.43, 8.78, 8.78, -4.86, -4.86, -5.11, -6.2, -6.2, -5.55, -5.55, -4.76, -4.76, -4.91, -4.91, -4.66, -4.66, -4.66, -4.95, -4.19, -4.19, -4.19, -4.19, -4.1, -3.32, -3.32, -3.32, -3.22, -3.13, -2.37, -2.37, -1.5, -1.45, -1.11, -0.82, -0.82, 0.0, 0.0, 0.0, 0.0, 0.0, 0.0, 0.0, 0.0, 0.0, 0.0, 0.0, 0.0, 0.0, 0.0, 0.0, 0.0, 0.0, 0.0, 0.0, 0.0, 0.0, 0.58, 1.74, 2.3, 3.5, 4.02, 5.89, 7.61, 8.22, 6.79, 7.21, 5.69, 6.63, 8.43, 9.83, 8.77, 6.95, 6.87, 7.74, 6.24, 3.68, 2.88, 5.96, 8.95, -15.02, -13.57, -13.7, -7.2, 0.0, 16.54, 16.09, 11.7, 4.12, 2.79, 2.33, 1.09, 0.0, 2.28, 6.0, 6.9, 7.69, 7.58, 6.85, 7.92, 7.36, 7.36, -4.24, -4.24, -4.86, -5.11, -5.55, -5.55, -5.55, -5.45, -5.45, -4.66, -4.66, -5.51, -5.35, -4.66, -4.81, -4.95, -4.95, -4.95, -4.19, -4.31, -4.1, -4.21, -4.1, -3.32, -3.13, -2.37, -2.37, -2.3, -2.19, -1.47, -1.47, -0.8, -0.82, 0.0, 0.0, 0.0, 0.0, 0.0, 0.0, 0.0, 0.0, 0.0, 0.0, 0.0, 0.0, 0.0, 0.0, 0.0, 0.0, 0.0, 0.0, 0.0, 0.0, 1.16, 1.72, 2.84, 4.02, 5.86, 6.96, 8.24, 8.75, 7.47, 6.87, 7.21, 6.52, 8.18, 9.6, 9.13, 7.51, 7.27, 7.9, 6.45, 3.32, 1.9, 3.51, 8.32, 0.0, -18.21, -16.09, -15.65, 16.09, 15.65, 16.54, 0.0, 0.0, 0.0, 0.0, 2.96, 5.09, 8.85, 9.8, 9.8, 7.44, 5.63, 5.92, 7.43, 7.21, 7.21, -4.24, -4.24, -4.24, -4.24, -5.28, -5.55, -5.28, -5.45, -5.62, -4.66, -5.51, -5.51, -5.51, -4.66, -4.66, -4.81, -4.81, -4.81, -4.81, -4.95, -4.1, -4.1, -4.1, -3.32, -3.22, -2.37, -2.37, -2.3, -1.47, -1.51, -0.76, -0.76, -0.76, 0.0, 0.0, 0.0, 0.0, 0.0, 0.0, 0.0, 0.0, 0.0, 0.0, 0.0, 0.0, 0.0, 0.0, 0.0, 0.0, 0.0, 0.0, 0.0, 0.58, 1.16, 2.39, 3.5, 4.72, 6.56, 7.61, 8.22, 8.52, 8.75, 7.13, 7.21, 7.68, 8.82, 8.4, 8.05, 6.98, 7.27, 7.36, 7.28, 5.27, 4.24, 3.79, 6.64, 9.85, 4.77, -19.67, -12.33, -0.0, 0.0, 0.0, 0.0, 0.0, 3.16, 7.2, 9.92, 11.06, 10.75, 8.58, 6.2, 5.15, 4.24, 3.65, 4.08, 5.63, 5.63, -4.86, -4.86, -4.24, -4.24, -4.61, -4.61, -4.76, -4.76, -4.66, -4.66, -5.25, -5.51, -5.51, -4.66, -4.44, -5.25, -4.81, -4.81, -4.81, -4.19, -3.98, -4.1, -4.1, -3.32, -3.22, -2.37, -2.37, -1.47, -1.47, -0.76, -0.76, 0.0, 0.0, 0.0, 0.0, 0.0, 0.0, 0.0, 0.0, 0.0, 0.0, 0.0, 0.0, 0.0, 0.0, 0.0, 0.0, 0.0, 0.0, 0.0, 0.0, 0.0, 0.58, 1.72, 2.39, 3.5, 5.2, 6.56, 7.33, 7.91, 8.53, 8.19, 7.27, 6.79, 7.21, 8.82, 6.79, 6.79, 7.67, 7.33, 6.98, 6.2, 7.16, 6.62, 4.66, 5.81, 9.36, 10.31, 7.38, 0.0, -0.0, -0.0, 0.0, 14.3, 14.75, 15.18, 15.36, 14.79, 11.38, 9.49, 5.48, 2.81, 3.36, 1.72, 2.28, 1.83, 4.38, 4.38, -4.7, -4.7, -4.24, -4.24, -4.38, -4.38, -4.52, -4.52, -4.66, -5.1, -5.25, -5.51, -4.81, -4.81, -4.44, -4.44, -4.81, -4.07, -4.07, -3.98, -3.98, -3.98, -3.32, -3.16, -2.44, -2.37, -1.51, -1.47, -0.74, -0.76, 0.0, 0.0, 0.0, 0.0, 0.0, 0.0, 0.0, 0.0, 0.0, 0.0, 0.0, 0.0, 0.0, 0.0, 0.0, -0.6, -0.64, -0.69, -0.72, -0.68, 0.0, 0.0, 0.58, 1.74, 2.84, 3.86, 5.2, 6.31, 7.27, 7.27, 8.21, 8.84, 7.81, 7.56, 7.21, 7.68, 6.28, 6.63, 6.98, 7.33, 6.58, 7.65, 8.31, 7.71, 7.8, 5.67, 2.09, 5.13, 6.5, 10.2, -0.0, -0.0, 14.79, 15.69, 15.78, 16.99, 16.54, 14.13, 10.59, 7.0, 4.66, 2.43, 0.0, 0.0, 0.0, 0.0, 0.0, 1.57, -4.7, -4.7, -4.86, -4.24, -4.38, -4.38, -4.52, -4.52, -4.44, -5.1, -5.25, -4.58, -4.81, -4.58, -4.58, -4.44, -3.95, -3.87, -3.87, -3.22, -3.22, -3.07, -2.32, -2.39, -1.56, -1.51, -1.47, -0.74, -0.74, -0.74, 0.0, 0.0, 0.0, 0.0, 0.0, 0.0, 0.0, 0.0, 0.0, 0.0, 0.0, 0.0, 0.0, 0.0, 0.0, -0.6, -0.64, -0.69, -0.74, -0.68, 0.0, 0.0, 0.56, 1.74, 2.3, 3.37, 4.72, 5.64, 6.9, 7.22, 8.19, 8.87, 8.49, 7.56, 6.87, 6.98, 6.98, 7.28, 7.56, 7.56, 8.93, 9.67, 8.73, 8.21, 9.34, 8.8, -2.81, -8.93, 0.0, 14.54, 16.39, 7.6, 12.64, 15.99, 17.53, 17.88, 17.02, 14.31, 9.67, 6.54, 3.3, 0.0, 0.0, 0.0, 0.0, -0.83, -1.46, 0.0, -4.7, -4.7, -4.7, -4.86, -4.38, -4.38, -4.52, -4.31, -4.44, -4.44, -4.58, -4.58, -4.58, -4.58, -4.58, -3.75, -3.75, -3.75, -3.13, -3.13, -3.07, -2.32, -2.32, -1.56, -1.56, -0.76, -0.74, -0.74, 0.0, 0.0, 0.0, 0.0, 0.0, 0.0, 0.0, 0.0, 0.0, 0.0, 0.0, 0.0, 0.0, 0.0, 0.0, -0.63, 0.0, 0.0, -0.81, -0.84, -0.84, -0.77, 0.0, 0.0, 0.59, 1.17, 2.3, 2.84, 4.02, 5.67, 6.61, 7.22, 8.53, 8.53, 6.64, 6.95, 6.64, 6.64, 6.52, 6.87, 7.56, 8.37, 9.2, 8.72, 7.85, 9.12, 10.08, 12.47, 4.38, -19.03, -15.19, 11.06, 15.65, 16.54, 12.64, 12.64, 14.88, 18.33, 15.62, 8.4, 5.65, 1.83, 1.68, 0.0, -1.77, -1.25, -2.06, -1.84, -2.53, -1.46, -4.7, -4.7, -4.7, -4.86, -4.24, -4.38, -4.17, -4.31, -4.31, -3.58, -3.58, -3.75, -3.87, -3.87, -3.75, -3.75, -3.04, -3.04, -3.04, -2.25, -2.25, -2.25, -1.51, -1.56, -0.78, -0.78, -0.74, 0.0, 0.0, 0.0, 0.0, 0.0, 0.0, 0.0, 0.0, 0.0, 0.0, 0.0, 0.0, 0.0, 0.0, 0.0, -0.71, -0.63, -0.61, 0.0, 0.0, -0.92, -0.87, -0.79, 0.0, 0.0, 0.56, 1.11, 1.74, 2.39, 3.5, 5.89, 6.33, 7.27, 8.53, 8.53, 8.85, 6.3, 6.64, 6.64, 6.01, 7.33, 7.44, 8.34, 8.99, 8.23, 6.87, 7.02, 8.43, 11.31, 13.68, 0.0, -9.46, 4.77, 16.09, 16.91, 13.91, 5.94, 5.51, 0.0, 0.0, 0.0, 0.0, 0.0, 0.0, -1.77, -2.72, -3.6, -3.29, -3.18, -2.37, -2.37, -4.54, -4.54, -4.7, -4.7, -4.24, -4.04, -4.17, -4.31, -4.11, -3.47, -3.58, -3.58, -3.58, -3.58, -2.89, -2.89, -2.89, -3.04, -2.89, -2.19, -2.25, -2.25, -1.51, -1.51, -0.76, -0.76, -0.74, 0.0, 0.0, 0.0, 0.0, 0.0, 0.0, 0.0, 0.0, 0.0, 0.0, 0.0, 0.0, 0.0, 0.0, -0.68, -0.69, -0.63, -0.6, -0.7, 0.0, 0.0, -0.79, -0.77, 0.0, 0.0, 0.0, 0.58, 1.72, 2.28, 4.68, 5.64, 6.58, 7.32, 8.22, 8.19, 7.85, 6.58, 6.95, 6.64, 6.64, 7.33, 7.44, 8.8, 8.34, 7.13, 6.87, 6.59, 8.05, 10.0, 11.41, 12.81, 12.79, 26.37, 24.14, 19.34, 22.35, -0.0, -0.0, -17.88, -15.59, -9.67, -6.14, -4.3, -3.2, -2.91, -4.39, -3.96, -2.93, -1.71, -1.71, -1.71, -4.54, -4.54, -4.7, -4.7, -4.04, -4.04, -4.17, -4.17, -3.98, -4.11, -3.47, -3.58, -3.58, -2.89, -2.89, -2.89, -2.89, -2.89, -2.19, -2.19, -2.25, -2.25, -1.51, -1.51, -0.72, -0.72, -0.7, 0.0, 0.0, 0.0, 0.0, 0.0, 0.0, 0.0, 0.0, 0.0, 0.0, 0.0, 0.0, -0.64, -0.66, -0.66, -0.64, -0.57, -0.58, -0.68, -0.75, -0.79, -0.74, -0.66, -0.63, 0.0, 0.0, 0.58, 1.16, 2.28, 4.68, 5.2, 6.97, 7.61, 7.61, 7.9, 7.85, 7.85, 7.27, 7.56, 7.21, 7.68, 8.15, 8.8, 7.64, 6.32, 6.48, 7.26, 6.7, 7.89, 9.71, 12.42, 12.65, 13.29, 14.88, 18.33, 26.82, 24.59, -0.0, -12.96, -17.88, -13.59, -9.77, -7.1, -4.71, -3.56, -3.82, -3.96, -2.37, 0.0, 0.0, 0.0, -4.33, -4.33, -4.48, -3.9, -4.04, -4.04, -4.17, -4.17, -4.11, -4.11, -3.47, -3.58, -3.58, -3.58, -2.89, -2.89, -2.89, -2.89, -2.89, -2.19, -2.25, -1.51, -1.51, -1.44, -0.72, -0.72, -0.7, 0.0, 0.0, 0.0, 0.0, 0.0, 0.0, 0.0, 0.0, 0.0, -0.62, -0.64, -0.64, -0.64, -0.64, -0.64, -0.62, -0.57, -0.58, -0.63, -0.7, -0.7, -0.7, -0.63, -0.58, 0.0, 0.0, 0.58, 1.16, 3.47, 4.68, 5.64, 6.97, 7.61, 7.61, 7.33, 7.9, 7.56, 8.53, 6.95, 7.21, 7.28, 8.15, 8.15, 7.68, 7.13, 7.27, 7.26, 6.7, 7.03, 8.22, 9.29, 12.04, 11.78, 14.45, 12.39, -0.0, -0.0, 15.49, 0.0, -16.79, -13.59, -11.52, -7.82, -4.81, -2.93, -3.96, -5.4, 0.0, 0.0, 0.0, 0.0, -4.33, -4.33, -3.9, -3.9, -3.9, -3.85, -3.85, -3.98, -4.11, -3.47, -3.47, -3.47, -3.58, -3.58, -2.89, -2.89, -2.89, -2.89, -2.89, -2.19, -2.19, -1.51, -1.44, -1.44, -0.72, -0.72, -0.7, 0.0, 0.0, 0.0, 0.0, 0.0, 0.0, 0.0, 0.0, -0.62, -0.62, -0.62, -0.64, -0.62, -0.62, -0.62, -0.62, -0.58, -0.58, 0.0, 0.0, -0.68, -0.68, -0.6, 0.0, 0.0, 0.0, 1.16, 1.72, 3.47, 4.51, 5.89, 6.97, 7.61, 7.26, 6.97, 7.24, 7.9, 7.9, 7.81, 7.21, 6.91, 7.64, 7.64, 7.13, 8.23, 7.59, 6.98, 6.48, 6.72, 7.03, 8.93, 11.0, 12.12, 12.9, 15.37, -12.59, -0.0, 10.4, 0.0, -8.4, -13.23, -11.12, -9.17, 0.0, 0.0, 0.0, 0.0, 0.0, 0.0, 0.0, 0.0, -4.33, -4.33, -3.9, -3.73, -3.85, -3.85, -3.85, -3.98, -3.36, -3.47, -3.47, -3.47, -3.58, -2.89, -2.89, -2.89, -2.89, -2.89, -2.89, -2.19, -1.47, -1.44, -1.44, -1.44, -0.72, -0.72, -0.7, 0.0, 0.0, 0.0, 0.0, 0.0, 0.0, -0.6, -0.6, -0.6, -0.6, -0.6, -0.62, -0.62, -0.62, -0.62, -0.62, -0.6, -0.56, 0.0, 0.0, -0.66, 0.0, 0.0, 0.0, 0.0, 0.57, 1.16, 2.93, 3.47, 5.2, 6.33, 6.98, 7.61, 6.97, 6.97, 7.26, 7.9, 8.52, 7.81, 6.87, 6.98, 8.18, 7.81, 7.47, 7.81, 7.06, 6.41, 6.67, 7.1, 7.78, 8.83, 10.61, 10.89, 10.99, 13.75, 18.65, -4.41, -6.18, -16.44, -10.17, -10.43, -10.37, 0.0, 0.0, -0.0, -0.0, -0.0, -0.0, -0.0, -0.0, -0.0, -4.13, -4.13, -3.73, -3.73, -3.73, -3.85, -3.98, -3.36, -3.36, -3.36, -3.47, -2.81, -2.68, -2.76, -2.76, -2.76, -2.89, -2.89, -2.19, -2.12, -2.12, -1.4, -1.44, -1.44, -0.72, -0.72, -0.7, -0.68, -0.66, -0.66, -0.64, -0.64, -0.62, -0.6, -0.6, -0.57, -0.57, -0.6, -0.6, -0.6, -0.6, -0.6, -0.63, -0.6, -0.58, -0.63, -0.66, -0.66, 0.0, 0.0, 0.0, 0.0, 0.58, 1.16, 2.93, 3.99, 5.2, 6.33, 6.98, 6.98, 6.97, 6.97, 7.26, 8.21, 8.22, 7.59, 7.21, 7.21, 6.95, 6.95, 7.27, 7.81, 7.59, 7.42, 8.22, 8.07, 7.93, 8.87, 10.47, 10.61, 9.92, 11.61, 14.27, -6.51, -13.8, -23.75, -18.24, -12.3, 8.85, 10.04, 12.07, -0.0, -0.0, -0.0, -0.0, -0.0, -0.0, -0.0, -4.13, -4.13, -4.28, -3.73, -3.73, -3.85, -3.98, -3.36, -3.36, -3.47, -3.31, -2.68, -2.76, -2.76, -2.76, -2.76, -2.76, -2.09, -2.09, -2.09, -2.09, -1.4, -1.44, -1.44, -0.72, -0.7, -0.7, -0.68, -0.66, -0.64, -0.64, -0.64, -0.62, -0.6, -0.6, -0.57, -0.57, -0.57, -0.57, -0.6, -0.6, -0.6, -0.63, -0.6, -0.58, -0.66, -0.68, -0.66, 0.0, 0.0, 0.0, 0.57, 0.58, 1.16, 2.93, 4.02, 5.23, 6.34, 6.98, 6.7, 6.98, 6.71, 6.98, 8.21, 8.22, 7.59, 7.4, 7.06, 6.95, 6.11, 6.95, 7.56, 7.81, 8.41, 8.69, 8.97, 8.85, 8.72, 9.67, 10.33, 10.31, 10.72, 12.37, 17.07, -16.09, -19.28, -0.0, 10.37, 13.41, 12.3, 9.66, 8.53, 0.0, 0.0, -13.41, -9.17, -9.17, -9.17, -4.13, -4.13, -4.28, -3.73, -3.73, -3.85, -3.98, -3.36, -3.36, -3.31, -3.31, -3.31, -2.76, -2.76, -2.76, -2.76, -2.76, -2.09, -2.09, -2.09, -2.09, -1.4, -1.44, -1.44, -1.4, -1.4, -0.7, -0.68, -0.66, -0.66, -0.64, -0.64, -0.62, -0.6, -0.6, -0.57, -0.57, -0.57, -0.57, -0.57, -0.57, -0.57, -0.6, -0.6, -0.63, -0.66, -0.68, 0.0, 0.0, 0.0, 0.0, 0.57, 0.57, 1.72, 2.93, 4.02, 5.02, 6.34, 6.35, 6.34, 6.34, 6.34, 6.98, 7.56, 8.19, 8.22, 7.27, 6.95, 7.74, 7.4, 7.4, 6.95, 7.33, 8.15, 8.82, 9.42, 9.26, 9.26, 9.36, 9.39, 9.62, 10.17, 10.48, 10.78, 0.0, -0.0, 7.2, 9.8, 12.72, 13.32, 11.28, 8.59, 8.05, 4.52, 0.0, 0.0, 0.0, 0.0, -4.13, -3.6, -4.13, -4.28, -3.73, -3.73, -3.85, -3.36, -3.36, -3.31, -3.31, -3.42, -3.42, -2.76, -2.76, -2.76, -2.76, -2.09, -2.09, -2.09, -2.09, -1.4, -1.4, -1.4, -1.4, -1.4, -0.7, -0.68, -0.66, -0.66, -0.64, -0.64, -0.62, -0.62, -0.6, -0.57, -0.57, -0.57, -0.57, -0.57, -0.57, -0.6, -0.6, -0.6, -0.63, -0.66, 0.0, 0.0, 0.0, 0.0, 0.0, 0.57, 0.57, 1.72, 2.82, 4.05, 5.26, 5.98, 5.98, 5.7, 5.7, 5.7, 6.63, 7.22, 8.19, 7.85, 7.59, 7.74, 8.12, 8.12, 8.12, 7.74, 6.95, 8.8, 8.73, 9.17, 8.97, 8.85, 8.59, 8.14, 8.43, 9.23, 9.05, 8.77, -0.0, 12.4, 13.95, 10.43, 10.73, 14.3, 12.51, 10.77, 10.12, 8.66, 8.05, 8.05, 8.05, 8.05, -3.6, -3.6, -3.6, -3.73, -3.73, -3.73, -3.85, -3.98, -3.36, -3.31, -3.31, -3.42, -3.42, -2.76, -2.76, -2.76, -2.76, -2.76, -2.09, -2.09, -2.09, -2.09, -1.4, -1.4, -1.4, -1.4, -0.68, -0.68, -0.66, -0.64, -0.64, -0.62, -0.62, -0.62, -0.6, -0.63, -0.6, -0.6, -0.57, -0.57, -0.57, -0.63, -0.6, -0.63, -0.61, -0.61, 0.0, 0.0, 0.0, 0.0, 0.0, 0.0, 0.57, 1.72, 2.84, 3.89, 5.04, 5.7, 5.7, 5.29, 5.29, 5.98, 5.98, 6.81, 7.51, 8.16, 8.53, 8.41, 7.74, 7.76, 7.4, 7.27, 8.07, 9.6, 9.45, 9.77, 9.08, 8.42, 8.3, 7.38, 7.49, 7.89, 8.07, 15.02, 16.61, 18.79, 17.1, 12.87, 12.3, 13.86, 13.48, 11.64, 10.43, 10.12, 9.02, 9.02, 9.02, 9.02, -3.6, -3.6, -3.6, -3.6, -3.73, -3.73, -3.85, -3.85, -3.98, -3.81, -3.31, -3.31, -3.42, -3.42, -2.76, -2.76, -2.76, -2.76, -2.09, -2.15, -2.09, -2.09, -1.4, -1.4, -1.4, -0.68, -0.68, -0.68, -0.66, -0.64, -0.64, -0.62, -0.62, -0.63, -0.63, -0.63, -0.6, -0.63, -0.63, -0.6, -0.63, -0.63, -0.6, -0.63, -0.61, -0.63, -0.63, 0.0, 0.0, 0.0, 0.0, 0.0, 1.16, 1.72, 2.84, 3.91, 5.29, 5.29, 5.29, 4.84, 5.06, 5.32, 5.56, 6.54, 6.81, 7.85, 8.16, 7.9, 7.27, 6.95, 6.95, 7.27, 8.58, 9.1, 9.7, 10.0, 8.82, 8.85, 8.18, 8.18, 7.25, 7.59, 9.6, 14.48, 17.97, 17.63, 16.12, 13.86, 13.41, 13.86, 13.43, 11.52, 10.43, 9.31, 9.31, 9.42, 9.42, 9.42, -3.6, -3.6, -3.6, -3.04, -3.04, -3.14, -3.25, -3.36, -3.98, -3.98, -3.21, -3.31, -3.42, -3.42, -2.76, -2.76, -2.76, -2.76, -2.09, -2.15, -2.15, -2.09, -1.4, -1.4, -0.68, -0.68, -0.68, -0.66, -0.66, -0.64, -0.64, -0.62, -0.65, -0.63, -0.63, -0.6, -0.6, -0.63, -0.63, -0.63, -0.63, -0.63, -0.63, -0.6, -0.6, -0.63, -0.63, -0.63, -0.57, -0.57, 0.0, 0.0, 0.58, 1.74, 2.87, 4.6, 5.29, 5.29, 4.6, 4.6, 4.63, 5.08, 5.6, 6.27, 6.81, 7.44, 7.85, 7.9, 7.06, 6.4, 6.4, 7.27, 7.9, 8.73, 9.32, 8.55, 8.94, 8.22, 8.59, 8.05, 7.25, 7.36, 9.6, 11.6, 21.18, 16.48, 15.18, 13.41, 13.86, 14.23, 13.62, 11.8, 10.75, 9.71, 8.58, 7.93, 7.93, 7.93, -3.04, -3.04, -3.04, -3.04, -2.45, -2.45, -2.54, -2.63, -2.63, -3.25, -3.36, -3.47, -3.47, -3.58, -2.76, -2.76, -2.76, -2.09, -2.09, -2.15, -2.15, -1.44, -1.44, -1.4, -1.36, -0.68, -0.68, -0.66, -0.66, -0.64, -0.65, -0.65, -0.63, -0.63, -0.63, -0.6, -0.6, -0.6, -0.63, -0.63, -0.63, -0.63, -0.6, -0.6, -0.63, -0.63, -0.65, -0.63, -0.57, -0.57, 0.0, 0.0, 1.11, 2.3, 4.08, 4.6, 4.84, 4.6, 4.6, 4.6, 5.29, 5.32, 5.6, 6.27, 6.54, 7.15, 7.52, 7.52, 6.92, 5.9, 6.69, 7.27, 8.24, 8.59, 8.59, 7.27, 6.95, 6.77, 7.1, 7.03, 7.49, 7.53, 8.32, 9.13, 19.91, 18.45, 14.79, 12.96, 13.67, 14.23, 13.84, 11.68, 10.11, 8.94, 8.18, 7.58, 7.58, 7.58, -3.04, -3.04, -3.04, -2.45, -2.54, -2.54, -2.43, -1.83, -1.9, -1.9, -2.59, -2.81, -2.81, -2.89, -2.89, -2.76, -2.09, -2.09, -2.09, -2.09, -1.44, -1.44, -1.44, -1.4, -1.36, -1.36, -0.68, -0.66, -0.67, -0.67, -0.65, -0.63, -0.63, -0.63, -0.6, -0.6, -0.6, -0.6, -0.6, -0.6, -0.6, -0.6, -0.6, -0.6, -0.6, -0.6, -0.6, -0.6, 0.0, 0.0, 0.0, 0.58, 1.74, 2.87, 3.91, 4.6, 4.6, 4.6, 4.6, 4.6, 5.29, 5.32, 5.72, 6.27, 6.27, 6.87, 7.22, 6.79, 6.51, 6.17, 5.98, 7.59, 8.24, 9.09, 8.15, 7.27, 6.3, 5.72, 5.52, 6.08, 6.73, 6.66, 6.52, 8.48, 5.33, 15.87, 20.6, 16.31, 14.31, 13.84, 13.03, 11.3, 9.67, 8.2, 6.6, 6.6, 6.6, 6.6, -3.04, -3.04, -3.19, -3.04, -2.54, -2.54, -2.54, -2.63, -2.51, -2.51, -2.59, -2.59, -2.81, -2.89, -2.19, -2.19, -2.09, -2.09, -2.09, -2.15, -1.44, -1.51, -1.51, -1.47, -1.42, -1.42, -0.69, -0.69, -0.67, -0.65, -0.65, -0.63, -0.63, -0.6, -0.6, -0.6, -0.58, -0.6, -0.6, -0.58, -0.58, -0.58, -1.2, -1.2, -1.19, -0.6, -0.6, 0.0, 0.0, 0.0, 0.0, 1.11, 2.3, 3.57, 4.12, 4.6, 4.12, 4.12, 4.6, 4.6, 5.29, 5.06, 5.32, 5.6, 5.6, 5.9, 6.17, 6.17, 6.51, 6.44, 6.44, 6.98, 8.15, 9.09, 8.15, 7.27, 6.4, 6.01, 5.21, 5.93, 5.67, 5.79, 4.88, 5.88, 5.02, 23.32, 15.92, 21.13, 15.09, 13.42, 12.35, 10.1, 8.2, 7.42, 6.29, 5.18, 5.18, 5.18, -3.04, -3.04, -3.04, -3.04, -3.14, -3.14, -3.14, -3.25, -3.11, -3.11, -2.59, -2.59, -2.12, -2.12, -2.19, -2.12, -2.12, -2.19, -2.19, -2.19, -1.51, -1.51, -1.51, -1.51, -1.42, -1.38, -0.69, -0.69, -0.67, -0.65, -0.65, -0.63, -0.63, -0.6, -0.6, -1.2, -1.2, -1.2, -1.16, -1.16, -1.16, -1.16, -1.2, -1.2, -1.14, -0.57, -0.57, 0.0, 0.0, 0.0, 0.0, 1.74, 2.87, 3.91, 4.12, 3.91, 3.91, 3.91, 4.6, 4.6, 5.29, 5.06, 5.32, 5.08, 5.34, 5.63, 5.9, 5.9, 5.9, 5.46, 5.78, 6.98, 7.59, 7.9, 7.9, 7.81, 7.27, 6.4, 4.78, 5.2, 5.11, 4.76, 4.85, 4.85, 5.41, 13.41, 14.84, 18.37, 19.29, 13.06, 11.38, 9.61, 7.0, 5.78, 5.35, 3.39, 3.39, 3.39, -3.04, -3.04, -3.04, -3.04, -3.04, -3.14, -3.73, -3.73, -3.85, -3.25, -3.36, -2.72, -2.12, -2.12, -2.12, -2.02, -2.12, -2.12, -2.19, -2.19, -1.47, -1.51, -1.51, -1.47, -1.42, -1.38, -1.38, -1.33, -1.33, -1.29, -1.29, -1.25, -1.2, -1.2, -1.2, -1.2, -1.2, -1.2, -1.2, -1.16, -1.16, -1.16, -1.2, -1.2, -1.2, -1.16, -0.58, 0.0, 0.0, 0.0, 0.55, 2.21, 2.87, 3.42, 3.91, 3.91, 4.08, 4.08, 4.6, 4.6, 4.63, 4.63, 4.66, 4.66, 4.69, 4.92, 5.21, 5.21, 5.21, 5.46, 6.23, 6.71, 7.27, 7.9, 7.56, 7.27, 6.69, 6.17, 6.17, 5.52, 5.06, 4.87, 4.71, 5.56, 7.38, 9.8, 20.16, 15.71, 18.59, 15.02, 10.89, 8.51, 7.4, 5.56, 4.86, 3.07, 3.07, 3.07, -3.04, -3.04, -3.14, -3.14, -3.14, -3.14, -3.14, -3.14, -3.14, -3.25, -2.76, -2.16, -2.12, -2.12, -2.12, -2.12, -2.12, -2.12, -2.12, -2.19, -1.47, -1.47, -1.47, -1.47, -1.42, -1.38, -1.38, -1.33, -1.33, -1.29, -1.29, -1.25, -1.2, -1.2, -1.2, -1.2, -1.2, -1.2, -1.2, -1.16, -1.16, -1.79, -1.79, -1.2, -1.2, -1.16, -0.58, -0.58, 0.0, 0.0, 1.12, 2.33, 2.87, 3.42, 3.42, 4.08, 4.08, 4.08, 4.6, 4.6, 4.63, 4.63, 4.42, 4.66, 4.44, 4.69, 4.96, 5.21, 5.21, 5.21, 5.46, 5.78, 6.58, 8.22, 7.9, 7.9, 7.27, 7.27, 6.17, 5.52, 5.0, 4.98, 5.35, 5.76, 8.02, 9.4, 14.54, 20.12, 19.67, 15.62, 11.19, 8.74, 8.05, 6.31, 4.54, 1.73, 1.73, 1.73, -3.04, -3.04, -3.14, -3.14, -3.14, -3.14, -3.14, -3.14, -3.14, -3.25, -2.76, -2.16, -2.12, -2.12, -2.12, -2.12, -2.12, -2.12, -2.12, -2.19, -1.47, -1.47, -1.47, -1.47, -1.42, -1.38, -1.38, -1.33, -1.33, -1.29, -1.29, -1.25, -1.2, -1.2, -1.2, -1.2, -1.2, -1.2, -1.2, -1.16, -1.16, -1.79, -1.79, -1.2, -1.2, -1.16, -0.58, -0.58, 0.0, 0.0, 1.12, 2.33, 2.87, 3.42, 3.42, 4.08, 4.08, 4.08, 4.6, 4.6, 4.63, 4.63, 4.42, 4.66, 4.44, 4.69, 4.96, 5.21, 5.21, 5.21, 5.46, 5.78, 6.58, 8.22, 7.9, 7.9, 7.27, 7.27, 6.17, 5.52, 5.0, 4.93, 4.61, 5.67, 7.34, 9.48, 11.95, 15.45, 18.68, 16.48, 12.64, 10.89, 8.48, 8.0, 5.94, 2.57, 2.57, 2.57]}]